Résultats du marathon de Paris 2016 – liste des 3000 premiers

Le marathon de Paris 2016 s’est couru dans de très bonnes conditions puisqu’à la pluie de la veille et de la nuit avait succédé une petite fraicheur ensoleillée idéale avec juste ce qu’il fallait d’humidité pour courir sans trop souffrir du manque d’eau.

Cybrian Kotut a conclu tout ça facilement en 2h07 et 11 secondes tandis que Laban Korir (un nom prédestiné) finissait en 2h07 29 et le 3ème, Chemlany, en 3h07 et 37 secondes.

Intéressons-nous au anonymes du marathon de Paris. Parmi les + de 40000 participants, le 1000ème, Mr Campbell, finissait en 3h01 et 1 seconde (c’est simple de s’en souvenir: – de 3 h, vous finissez dans les 922 premiers du marathon de Paris.

Le 2000ème, Mr Echaiti, finit en 3h12 et 34 secondes –> 1000 coureuses et coureurs en 11 minutes (ça se bouscule au portillon pour les 3 heures et sans doute, des dizaines de places ont pu se gagner au sprint dans cet intervalle).

C’est encore pire de 2000 à 3000 puisque la 3000ème, Julie Capdevielle est en 3h19 et des brouettes (1000 places en 7 minutes).

Mr Le Droggof, qui finit 4000ème est en 3h25 et 36 secondes (c’est encore serré).

Le premier en 3h30 est Mr Sayssac, 5008ème.

Bravo à tous les participants et voici maintenant la liste intégrale des 3000 premiers (hommes et femmes, toutes catégories confondues) eu marathon de Paris. Vous trouverez sur chaque ligne le classement deon la personne, son temps, son numéro de dossard, son nom et son prénom.

 

  • Classement Temps Dossard Nom Prénom
  • 1 02:07:11 13 KOTUT Cybrian
  • 2 02:07:29 3 KORIR Laban
  • 3 02:07:37 6 CHEMLANY Stephen
  • 4 02:08:03 8 KOGO Micah
  • 5 02:08:17 5 ABRAHA Gebretsadik
  • 6 02:08:28 7 LAGAT Alfers
  • 7 02:08:53 18 ATANFU Yatayal
  • 8 02:09:29 10 KANDA Luka
  • 9 02:11:31 2 KOECH Bernard
  • 10 02:12:16 9 KIPROTICH Felix
  • 11 02:13:21 11 KEMBOI Elijah
  • 12 02:14:18 4 YEGON Gilbert
  • 13 02:15:38 19 BOMMIER Timothee
  • 14 02:16:16 17 MALATY Benjamin
  • 15 02:19:12 22 MUNYUTU Simon
  • 16 02:20:07 88 SAKAMOTO Tomonori
  • 17 02:21:51 121 GUIOMAR Adrien
  • 18 02:22:32 132 CHORIN Alban
  • 19 02:25:53 207 JEPKESHO Visiline
  • 20 02:26:14 203 CHALA Gulume
  • 21 02:27:10 124 BENICHOU Thomas
  • 22 02:28:11 204 TEFERA Dinknesh
  • 23 02:28:13 148 CARETTE Romain
  • 24 02:28:19 11377 RONDOT Antoine
  • 25 02:28:29 6629 CHIOTTI Jerome
  • 26 02:29:06 128 LOZANO Marc
  • 27 02:29:12 87 LEBOULANGER Mathieu
  • 28 02:29:22 1009 CABALLERO PIERNAS Ruben
  • 29 02:30:25 145 PAPILLON Benjamin
  • 30 02:30:41 548 BRELIVET Patrick
  • 31 02:30:53 518 FRANCK Vincent
  • 32 02:30:57 82 BELLANCA Jerome
  • 33 02:31:14 6633 HOGUET Raphael
  • 34 02:31:19 660 SYLLA Amadou
  • 35 02:31:28 209 CHESIRE Rebecca
  • 36 02:31:28 129 CASSAGNES Mickael
  • 37 02:31:32 136 COUGNAUD Julien
  • 38 02:31:35 134 CAILLERE Olivier
  • 39 02:32:06 212 MELESE Yebrgual
  • 40 02:32:15 6188 SHARUBUTU Philibus
  • 41 02:32:40 1039 PASERO Mikael
  • 42 02:32:44 235 OTSUBO Mari
  • 43 02:33:03 630 LORENZO Giulio
  • 44 02:33:09 881 LEBRET Julien
  • 45 02:33:13 1045 RYCKELYNCK Benjamin
  • 46 02:33:40 135 GACON Nicolas
  • 47 02:33:50 5637 AIGARS Matisons
  • 48 02:33:49 141 EVRARD Fabrice
  • 49 02:34:01 11476 BIGNON Xavier
  • 50 02:34:08 215 UTURA Sule
  • 51 02:34:08 231 KLEIN Sarah
  • 52 02:34:12 130 LAVENDOMNE Arnaud
  • 53 02:34:14 958 ROUXEL Aurelien
  • 54 02:34:30 20264 ARCAL Javier
  • 55 02:34:35 748 BEZANCON Teddy
  • 56 02:34:57 695 FINCKE Simo-Pekka
  • 57 02:34:59 139 JOUBERT Fabien
  • 58 02:35:00 149 MARTINS Irondino
  • 59 02:35:09 4224 MCGONAGLE Ciaran
  • 60 02:35:32 10653 BRAMAUD Philippe
  • 61 02:35:46 86 KUMBI BECHERE Tura
  • 62 02:35:52 211 QUAGLIA Emma
  • 63 02:36:01 144 LARUE Sebastien
  • 64 02:36:06 3272 MAINDRON Christophe
  • 65 02:36:26 631 ZALEJSKI Nicolas
  • 66 02:36:44 90 REMOND Philippe
  • 67 02:36:50 5356 HODGES Alastair
  • 68 02:36:56 85 STEPHANT Kevin
  • 69 02:36:56 6553 MOULAI Tony
  • 70 02:36:57 6697 MOULAI Jeremy
  • 71 02:37:11 765 BERTRAND Sebastien
  • 72 02:37:14 993 DEVEL Philippe
  • 73 02:37:16 812 ANGLADE Romain
  • 74 02:37:21 531 STELLA Giovanni
  • 75 02:37:24 5116 GERICA JUAN Inaki
  • 76 02:37:31 3598 PAFUMI Enrico
  • 77 02:37:45 541 COTE Patrick
  • 78 02:38:03 918 STAMATIS Papadakis
  • 79 02:38:14 3819 EMERE Benjamin
  • 80 02:38:17 3439 FOUSEK Jan
  • 81 02:38:18 729 GROENBEK Jens
  • 82 02:38:24 6505 GARCIA ESTEVEZ Jose Manuel
  • 83 02:38:29 6761 CARLIER Alderic
  • 84 02:38:34 210 KOMU Martha
  • 85 02:38:35 214 VANDENBUSCHE Hanna
  • 86 02:38:36 39 DECLERCK Misha
  • 87 02:38:56 6698 MICHON Jerome
  • 88 02:39:03 120 RUBIO Gilles
  • 89 02:39:09 912 MEDJOUB Lucas
  • 90 02:39:12 10682 CHAIGNEAU Guillaume
  • 91 02:39:13 556 CANRY Romain
  • 92 02:39:20 625 DANO Yoannes
  • 93 02:39:33 6674 DANIEL Gwenole
  • 94 02:39:35 3791 LHERITIER Nicolas
  • 95 02:39:46 547 ROUXEL Vincent
  • 96 02:39:54 713 COUTAND Francois
  • 97 02:39:59 4847 SLETTEHAUGH Neil
  • 98 02:40:00 880 COINE Roland
  • 99 02:40:09 613 FICHTER Nicolas
  • 100 02:40:13 5032 FINKE Axel
  • 101 02:40:18 137 MARQUIS Laurent
  • 102 02:40:19 560 AUTUGELLE Didier
  • 103 02:40:20 6827 LEMOS Marco
  • 104 02:40:30 1008 TUTOIS Gregory
  • 105 02:40:31 632 MY?LAK Piotr
  • 106 02:40:34 536 SALGUERO DEL VALLE Alfonso
  • 107 02:40:35 6850 BOULATE Eddy
  • 108 02:40:50 811 PARRICO Anthony
  • 109 02:40:55 3319 EMIDIO Rodrigues
  • 110 02:40:55 6719 BORT Levis
  • 111 02:41:00 996 FERREIRA Joseph
  • 112 02:41:13 4062 MARRE Christophe
  • 113 02:41:15 797 AUZINS Martins
  • 114 02:41:16 4246 COMMUNOD Romaric
  • 115 02:41:17 694 QUEMENEUR Daniel
  • 116 02:41:18 589 BOUDJELLAL Yazid
  • 117 02:41:23 4154 SUDA Yuta
  • 118 02:41:39 661 FERLAY Florent
  • 119 02:41:42 941 MONIER Frederic
  • 120 02:41:44 6467 BOULFAKHR El Maati
  • 121 02:42:05 1026 NORDSTROM Fredrik
  • 122 02:42:10 6882 BONNET Patrick
  • 123 02:42:11 5872 VALKONEN Timo
  • 124 02:42:12 512 ELARBI Koundy
  • 125 02:42:14 3979 GARCIA GONZALEZ Santiago
  • 126 02:42:17 928 HERVE Fabrice
  • 127 02:42:23 1053 RIO Mevenig
  • 128 02:42:24 6118 MILLS Adam
  • 129 02:42:26 663 SAYER Michel
  • 130 02:42:29 910 ALEX Maxime
  • 131 02:42:29 1002 ROUSSEAU Francois
  • 132 02:42:39 960 GUIVARCH Pierre-Yves
  • 133 02:42:40 873 MONTEIRO Manuel
  • 134 02:42:40 131 LOUVEL Sebastien
  • 135 02:42:41 3763 CORDWELL James
  • 136 02:42:54 6681 ALHAWI Maher
  • 137 02:43:01 6168 GEZMU Zenash
  • 138 02:43:02 1034 LANDA TRANCA Alberto
  • 139 02:43:02 5952 BEN AMI Rafael
  • 140 02:43:12 936 TATARD Jeff
  • 141 02:43:14 615 NASSOURI Mohamed
  • 142 02:43:16 896 TERNYNCK Julien
  • 143 02:43:23 978 FILLION Mathieu
  • 144 02:43:24 6079 LLORENS Mickael
  • 145 02:43:26 3960 LORBLANCHET Thomas
  • 146 02:43:28 6480 VERRIER Benoit
  • 147 02:43:29 754 POTELLE Benoit
  • 148 02:43:30 736 VINCENT Renaud
  • 149 02:43:30 4624 BOUSLOUH Boujemaa
  • 150 02:43:32 234 INO Mitsuko
  • 151 02:43:32 6702 PAULSEN Kevin
  • 152 02:43:34 6278 BELKHIER Nadir
  • 153 02:43:37 861 JOSE FRANCISCO Galaviz Garza
  • 154 02:43:42 4754 CAVARO Herve
  • 155 02:43:44 1040 MAROTTE Emmanuel
  • 156 02:43:45 5122 PETIT Antoine
  • 157 02:43:50 986 POIRIER Yohann
  • 158 02:43:55 3851 FITZGERALD Paul
  • 159 02:44:02 133 LATRECHE Fouad
  • 160 02:44:04 6160 MERKT Jurg
  • 161 02:44:08 6808 ALTIS Thierry
  • 162 02:44:10 862 NAVELOT Benoit
  • 163 02:44:10 5688 VERES Pavol
  • 164 02:44:14 6307 RENAUDIE Jean-Baptiste
  • 165 02:44:16 4394 ABED Hamza
  • 166 02:44:18 6796 SERRA CROSAS Josep
  • 167 02:44:20 3128 PERNOT Sylvain
  • 168 02:44:20 4500 BOSTJAN Svab
  • 169 02:44:21 644 GODET Sebastien
  • 170 02:44:21 659 BELLEC Renaud
  • 171 02:44:21 4292 NIBLACK David
  • 172 02:44:24 753 TABARY Guillaume
  • 173 02:44:24 4460 GARCIA David
  • 174 02:44:30 1015 SHANKS Stephen
  • 175 02:44:45 691 DURAND Sebastien
  • 176 02:44:56 773 RUIZ Pascal
  • 177 02:44:59 591 CIELUSZECKI Jacek
  • 178 02:44:59 776 HERCHENROEDER Nathan
  • 179 02:44:59 6100 SHIELDS Andrew
  • 180 02:45:00 701 DUBOIS Alexandre
  • 181 02:45:01 5649 SLATER Matthew
  • 182 02:45:02 6481 DUTOT Sebastien
  • 183 02:45:06 682 BLEUSE Pascal
  • 184 02:45:16 4631 BURROWS Oliver
  • 185 02:45:17 5254 VISSER Ian
  • 186 02:45:22 147 AZAHRAI Mustapha
  • 187 02:45:24 626 GODART Pascal
  • 188 02:45:25 5660 MARECHAL Franck
  • 189 02:45:26 3577 MORIN Aymeric
  • 190 02:45:27 5269 AKIL Verner
  • 191 02:45:27 6840 ABATORD Louis-Michel
  • 192 02:45:29 737 VAN HEMERT Waldo
  • 193 02:45:29 977 SUSCILLON Olivier
  • 194 02:45:29 5562 AIT IDER Mustapha
  • 195 02:45:33 146 FASOLO Florian
  • 196 02:45:33 4852 MARCELLO Pedretti
  • 197 02:45:35 673 BOCCARA David
  • 198 02:45:38 981 CONIN Kevin
  • 199 02:45:39 1041 HECQUET Vincent
  • 200 02:45:42 600 KARA Amirouche
  • 201 02:45:49 5275 DALY John
  • 202 02:45:56 5825 TORNIELLI Giovanni
  • 203 02:45:59 5237 DISSLER Frantz
  • 204 02:46:00 6451 TASSOU Benoit
  • 205 02:46:01 571 BEVAN Arnaud
  • 206 02:46:07 774 BOUDAUD Sebastien
  • 207 02:46:11 3258 MORAS Raphael
  • 208 02:46:15 832 GRIFFITHS Mark
  • 209 02:46:16 730 JADAUD Yoann
  • 210 02:46:16 866 LAFARGE Benoit
  • 211 02:46:22 143 DUCROT Joel
  • 212 02:46:24 605 MERAND Jeremy
  • 213 02:46:24 852 MATHIEU Stephane
  • 214 02:46:24 6455 DUCHENE Laurent
  • 215 02:46:24 216 SANCHEZ Barbara
  • 216 02:46:32 917 MARRAMA Gregory
  • 217 02:46:34 565 BEVAN Lionel
  • 218 02:46:42 722 ELIES Jean-Francois
  • 219 02:46:45 3542 OUDINA Karim
  • 220 02:46:52 656 LOPEZ Jose-Luis
  • 221 02:46:53 982 VANDEMEULEBROUCKE Yves
  • 222 02:46:54 4671 LEGUEVAQUE Baptiste
  • 223 02:46:55 535 ANACHE Alexandre
  • 224 02:46:55 573 LAMOUREUX Christophe
  • 225 02:47:01 595 CHOUQUET Thibaut
  • 226 02:47:04 745 CHATELAIN Alain
  • 227 02:47:05 6315 LESAVRE Antoine
  • 228 02:47:05 51558 BRUYERE Benoit
  • 229 02:47:09 1020 NOREL Thierry
  • 230 02:47:12 6112 COREY Squire
  • 231 02:47:15 6830 ROUSSAS Francois
  • 232 02:47:18 908 TCHABOURINE Severin
  • 233 02:47:22 4925 SELLAH Anthony
  • 234 02:47:25 5859 HASKIYA Samer
  • 235 02:47:26 3581 AUVRAY Julien
  • 236 02:47:26 5753 VOISIN Tony
  • 237 02:47:28 6219 GANDUBERT Loic
  • 238 02:47:30 751 GAUTHIER Gildas
  • 239 02:47:36 5655 STUNZ Johan
  • 240 02:47:40 142 GUIM Cesc
  • 241 02:47:41 11354 KHELIFI Idir
  • 242 02:47:45 6566 SABIN Daniel
  • 243 02:47:46 551 GONZALEZ ORDAS Antonio
  • 244 02:47:48 545 FASSY Laurent
  • 245 02:47:50 3786 LANNUZEL Eric
  • 246 02:47:58 705 ABILY Bruno
  • 247 02:47:58 787 DUTHILLEUL Sebastien
  • 248 02:47:58 6637 BUET Stephane
  • 249 02:47:59 6720 BREMONT Arnaud
  • 250 02:48:02 813 BIE Nicolas
  • 251 02:48:04 4591 GESLOT Antoine
  • 252 02:48:04 528 GUILLOU Samuel
  • 253 02:48:09 516 LONCHAMBON Fabrice
  • 254 02:48:11 3950 SAID Mansour
  • 255 02:48:15 3015 SUEL Samuel
  • 256 02:48:17 4609 BRION Christophe
  • 257 02:48:18 4885 RUSZNIAK Pawel
  • 258 02:48:21 3378 ANGEL LUIS Rodrigo Becerra
  • 259 02:48:25 526 ANGELERI Massimo
  • 260 02:48:28 6606 RICHARD Emmanuel
  • 261 02:48:34 11731 JABIN Germain
  • 262 02:48:35 747 IGARZABAL Bixente
  • 263 02:48:35 897 LERUTH Olivier
  • 264 02:48:36 4125 BREQUEVILLE Samuel
  • 265 02:48:37 3163 SANCHEZ Laurent
  • 266 02:48:42 653 BANDRAC Fabrice
  • 267 02:48:42 3280 VALA-VIAUX Gael
  • 268 02:48:43 5207 MOURATIDIS Fotios
  • 269 02:48:45 3136 VINTROU Julien
  • 270 02:48:45 5165 JAMES MORAN James
  • 271 02:48:49 4088 QUEVEDO BRAVO Pedro Luis
  • 272 02:48:50 532 PETERSEN Poul
  • 273 02:48:55 855 LATTION Emmanuel
  • 274 02:48:56 4189 CHATELAIN Sebastien
  • 275 02:48:58 594 DILIBERTO Antonino
  • 276 02:49:01 3332 LE QUERRE Fabrice
  • 277 02:49:01 3657 BONDUE Maxime
  • 278 02:49:05 4405 SALORANTA Timo
  • 279 02:49:08 785 COIC Alain
  • 280 02:49:08 6005 DECOTTIGNIES Robin
  • 281 02:49:11 790 DUMAS Timothee
  • 282 02:49:10 629 GIRARD Sebastien
  • 283 02:49:13 12725 SPEER Adam
  • 284 02:49:15 5937 GIORDANENGO Stephane
  • 285 02:49:17 5799 TRANA Gabriela
  • 286 02:49:18 971 BERTRAND Emmanuel
  • 287 02:49:24 576 SEVESTRE Cyrille
  • 288 02:49:24 4430 LE CLEZIO Pierre
  • 289 02:49:27 693 LEFEBVRE Rudy
  • 290 02:49:29 676 ROBERT Mathieu
  • 291 02:40:24 422 BROQUET Jeremy
  • 292 02:49:31 3149 MAROLLES Frederic
  • 293 02:49:31 3192 BOUGRAIN Frederic
  • 294 02:49:33 822 PIAU Hugues
  • 295 02:49:36 5961 SALOMON Franck
  • 296 02:49:38 646 DARRIEUTORT Xavier
  • 297 02:49:38 3659 RINGOT Boris
  • 298 02:49:43 903 FIVRIN Ashkan
  • 299 02:49:43 25450 GRAND-DUFAY Antoine
  • 300 02:49:47 3252 YOUSSOUPHA N_Diaye
  • 301 02:49:57 614 CARPENTIER Chris
  • 302 02:49:57 675 DE SANTIAGO CASADO Daniel
  • 303 02:49:57 4841 GICHURU Samuel
  • 304 02:50:04 872 POULIZAC Erwan
  • 305 02:50:06 5653 MOREL Samuel
  • 306 02:50:07 13588 VILLEDIEU Nicolas
  • 307 02:50:14 734 HOWLETT Adam
  • 308 02:50:15 4772 CHANIVOT Ludovic
  • 309 02:50:15 6017 JORGENSEN Petter
  • 310 02:50:19 952 GIL Renaud
  • 311 02:50:21 1003 JOSEPH Vincent
  • 312 02:50:22 987 NILSSON Robert
  • 313 02:50:24 6470 RABY Sebastien
  • 314 02:50:26 989 DECAUX Mickael
  • 315 02:50:27 4521 DELAGE Jean-Francois
  • 316 02:50:28 6203 LAM Marilyne
  • 317 02:50:29 930 RIGAULT Julien
  • 318 02:50:31 3951 AUBINEAU Sebastien
  • 319 02:50:33 752 BROUARD Benoit
  • 320 02:50:36 879 BULTEL Martin
  • 321 02:50:38 21016 ROUSSEAUX Valentin
  • 322 02:50:42 505 CALMARD Thierry
  • 323 02:50:43 925 LARROUTIS Laurent
  • 324 02:50:44 4168 VANNIER Jerome
  • 325 02:50:45 5534 BOUTELIER Daniel
  • 326 02:50:50 6593 BOUDIER Stephane
  • 327 02:50:52 9685 GARCIA DIEGO Juanlu
  • 328 02:50:53 800 AIT WAKRIME Samir
  • 329 02:50:54 4917 EWALD Johan
  • 330 02:50:58 3071 BRAHIMI Jallal
  • 331 02:50:59 538 PATTIN Christophe
  • 332 02:50:56 32809 GELLE Christophe
  • 333 02:51:01 604 RIPOCHE Jerome
  • 334 02:51:01 708 BRINKHOFF Jeroen
  • 335 02:51:05 907 GUYADER Frederic
  • 336 02:51:05 4858 CUEVAS JUAN Pedro Ignacio
  • 337 02:51:06 3398 CHENU Dominique
  • 338 02:51:08 3632 POWIDE? Marcin
  • 339 02:51:10 849 TCHAPLYGUINE Brice
  • 340 02:51:11 25266 PARK Sungbae
  • 341 02:51:14 721 VILSKA Kimmo
  • 342 02:51:16 3721 PEREZ RUIZ Juan Miguel
  • 343 02:51:16 6312 MENACHEM Nir
  • 344 02:51:21 562 VIOLARD Frederic
  • 345 02:51:21 911 AL KHARFAN Thomas
  • 346 02:51:22 3712 VANDEWALLE Thomas
  • 347 02:51:24 586 ARCE Patrick
  • 348 02:51:24 809 SOULET Christophe
  • 349 02:51:24 4410 BENADJAOUD Cedric
  • 350 02:51:25 742 JACQUES Sebastien
  • 351 02:51:26 627 FITAMANT Yannick
  • 352 02:51:28 11043 RICHARD Christophe
  • 353 02:51:29 4774 GIRAUD Patrice
  • 354 02:51:34 6051 DELLA ROCCA Alfonso
  • 355 02:51:38 893 RANGEL Elenilton
  • 356 02:51:38 4782 LAHET Jeff
  • 357 02:51:38 5901 STARTARI Domenico
  • 358 02:51:41 674 HOLLEY Paul
  • 359 02:51:41 4137 POUDES Axel
  • 360 02:51:41 11463 KAY Alan
  • 361 02:51:43 4789 PADER Thomas
  • 362 02:51:44 867 SUTEAU Frederic
  • 363 02:51:44 6802 COUCHOUD Fabrice
  • 364 02:51:47 3166 PECORA Giovanni
  • 365 02:51:48 122 BORDIER Regis
  • 366 02:51:59 957 BARBEREAU Morgan
  • 367 02:52:01 3807 RECUPERO Antonino
  • 368 02:52:01 4468 MACHADO Luis
  • 369 02:52:02 3049 BERGEY Olivier
  • 370 02:52:02 3697 ETHEVE Remy
  • 371 02:52:04 3165 MADDISON Stephen
  • 372 02:52:06 898 PLATA Guillaume
  • 373 02:52:07 649 BUEHLER Marcel
  • 374 02:52:08 769 ALBA PARICIO Jose Vicente
  • 375 02:52:11 6715 GLUŠ?EVS Didzis
  • 376 02:52:11 11586 MATHIAS Todd
  • 377 02:52:12 1010 LIITOLA Mika
  • 378 02:52:12 1037 AGLAOR Yannick
  • 379 02:52:13 6141 ROBERT David
  • 380 02:52:14 53720 PATOUX Sebastien
  • 381 02:52:15 894 DA COSTA Bernard
  • 382 02:52:15 5883 PRIOUR Alain
  • 383 02:52:14 819 DEBAINS Mickael
  • 384 02:52:18 4844 LABRO Julien
  • 385 02:52:20 4248 MONTAY Sebastien
  • 386 02:52:21 853 JONES Craig
  • 387 02:52:22 974 WOLF Diane
  • 388 02:52:23 5167 CAHEZ Florimond
  • 389 02:52:25 3773 TERENCE Bell
  • 390 02:52:26 698 DESBOS Nicolas
  • 391 02:52:27 830 BAGUET Jean-Baptiste
  • 392 02:52:27 5259 SALCZER Bertrand
  • 393 02:52:28 931 FERNET Thomas
  • 394 02:52:34 6519 SELMOUNI Ali
  • 395 02:52:36 1044 LUIS Lobo
  • 396 02:52:37 4289 HOGUET Vincent
  • 397 02:52:38 16291 MARY Glen
  • 398 02:52:39 654 PENNORS Franck
  • 399 02:52:42 648 DUPOUY Olivier
  • 400 02:52:45 567 PERRAUD Olivier
  • 401 02:52:48 9508 DEMONTPION Julien
  • 402 02:52:50 557 VINET Etienne
  • 403 02:52:50 3538 GAUDY Wilfried
  • 404 02:52:50 4969 DELPORTE Nicolas
  • 405 02:52:51 874 METRO Jerome
  • 406 02:52:52 1006 NOMPAIN Quentin
  • 407 02:52:52 4732 MONTANA Thomas
  • 408 02:52:53 11171 MAGALHAES Samuel
  • 409 02:52:54 733 BOWIE Michel
  • 410 02:52:55 6078 GARCIA PALACIOS Diego
  • 411 02:52:57 6034 COSTA Paulo
  • 412 02:53:02 5764 FONTANA Paul
  • 413 02:53:04 5781 CORRE Tanguy
  • 414 02:53:05 4284 GAULUPEAU Marc
  • 415 02:53:07 3665 BRAHIM Arnaud
  • 416 02:53:08 588 HERVOUET Pierre
  • 417 02:53:09 6460 RICHARD Thomas
  • 418 02:53:12 741 TRELUYER Vincent
  • 419 02:53:12 940 PASQUIER Laurent
  • 420 02:53:14 507 SALOU Marc
  • 421 02:53:16 6792 BECCARELLI Giuliano
  • 422 02:53:17 4912 OLSEN Kim
  • 423 02:53:18 6564 PAYN Sebastien
  • 424 02:53:19 1027 MUNCH Romeo
  • 425 02:53:21 883 DANIELO Jean-Michel
  • 426 02:53:21 11955 BOUDET Romain
  • 427 02:53:22 854 DEJEY Felix
  • 428 02:53:22 890 FAVREL Alain
  • 429 02:53:25 6898 GRIFFITHS Keith
  • 430 02:53:26 555 DIALLO David
  • 431 02:53:26 6346 CURRI Vitantonio
  • 432 02:53:27 3567 GAUDE Philippe
  • 433 02:53:27 4036 MIZZON Thierry
  • 434 02:53:27 17321 DE OLIVEIRA Emmanuel
  • 435 02:53:28 706 DE CHANTERAC Martin
  • 436 02:53:29 1014 NOEL Benjamin
  • 437 02:53:31 21690 DUBEDOUT Jacques
  • 438 02:53:33 561 THIBAULT Charles
  • 439 02:53:34 984 GUINARD Paul-Emmanuel
  • 440 02:53:34 4097 GUENIER Ghislain
  • 441 02:53:35 3897 COIANIZ Alessandro
  • 442 02:53:36 4443 BESENBRUCH Sylvain
  • 443 02:53:38 4069 BACHA Kamel
  • 444 02:53:38 5401 SCHREMPP Michael
  • 445 02:53:39 1033 RICO NINO Tomas
  • 446 02:53:40 1000 HECTOR Pertejo
  • 447 02:53:42 5099 SKRZYNIARZ Marek
  • 448 02:53:44 3168 MAROIS Cyrille
  • 449 02:53:43 4629 MACEK Stanko
  • 450 02:53:43 5902 WORSLEY Lloyd
  • 451 02:53:45 3304 PATUREAU Franck
  • 452 02:53:45 6029 GAUCH Bertrand
  • 453 02:53:45 6096 BOULEY Didier
  • 454 02:53:45 6466 CHAMPENOIS Morgan
  • 455 02:53:47 4490 FRANCOIS Guillaume
  • 456 02:53:49 3801 VERLAQUE Marc
  • 457 02:53:49 4433 DIAZ MARTINEZ Pablo
  • 458 02:53:50 5178 KLINGENFUSS Reto
  • 459 02:53:50 5877 CAMPAGNE Xavier
  • 460 02:53:52 597 ROUHAUD Yvan
  • 461 02:53:54 991 TRENTIN Sebastien
  • 462 02:53:55 4548 DINKIN William
  • 463 02:54:00 5805 DESCAMPS Simon
  • 464 02:54:00 59779 CHALUMEAU Thomas
  • 465 02:54:01 5815 JAOUEN Jean-Francois
  • 466 02:54:02 603 BERRUE Ludovic
  • 467 02:54:03 6602 NOUSBAUM Francois-Xavier
  • 468 02:54:05 5836 WHEARITY Alex
  • 469 02:54:06 3065 GORGERAT Jean-Philippe
  • 470 02:54:06 3320 PETER Burrows
  • 471 02:54:07 6783 BEAUMENIL Maxime
  • 472 02:54:07 6786 DESCHAMP Frederic
  • 473 02:54:09 5301 BORNHALL Johan
  • 474 02:54:07 3649 FOULQUIER Julien
  • 475 02:54:11 645 BENDOTTI Nicolas
  • 476 02:54:13 3627 LEFEBVRE Julien
  • 477 02:54:13 6391 LE THIEC Didier
  • 478 02:54:14 5864 PROVOST Maxime
  • 479 02:54:16 5650 LAGAST Gary
  • 480 02:54:16 232 HARTWEG Olivia
  • 481 02:54:18 838 WAKEFIELD Michael
  • 482 02:54:18 3701 NEOUZE Frederic
  • 483 02:54:18 5476 HIRARD Matthieu
  • 484 02:54:19 4028 ZASSO Christophe
  • 485 02:54:21 598 CORBIC Jean-Michel
  • 486 02:54:23 1022 FORET Marc
  • 487 02:54:24 6542 LASTENNET Glenn
  • 488 02:54:26 810 OLLIER Stephane
  • 489 02:54:26 12125 LERENDU Valentin
  • 490 02:54:28 612 POIRIER Frederic
  • 491 02:54:29 599 PIRES Jean-Louis
  • 492 02:54:29 820 PATUREL Olivier
  • 493 02:54:29 4727 GILBERT Eric
  • 494 02:54:29 5518 VANHEES Wouter
  • 495 02:54:30 3966 VAZQUEZ CASARES Emilio
  • 496 02:54:33 21362 BESNARD Francois
  • 497 02:54:35 1036 ISAERT Christophe
  • 498 02:54:35 11097 DUBS Arnaud
  • 499 02:54:38 514 DELAUNAY Jerome
  • 500 02:54:39 5319 VERGARA Reinaldo
  • 501 02:54:40 638 BURETTE Matthieu
  • 502 02:54:41 1032 BETTACHE Abel
  • 503 02:54:41 4327 BRIGHTON Alex
  • 504 02:54:42 67485 LAHONDE Aymeric
  • 505 02:54:43 791 ALLEMAND Jean-Louis
  • 506 02:54:43 5889 GRIMLER Alexandre
  • 507 02:54:43 11146 GAMBERT Rodolphe
  • 508 02:54:44 566 VOISIN Emmanuel
  • 509 02:54:45 6447 PONCHEL Gregory
  • 510 02:54:46 5325 LARNAUD Benoit
  • 511 02:54:47 11620 MERLE Sebastien
  • 512 02:54:45 9304 PAULOT Benjamin
  • 513 02:54:51 886 PEUCHOT Bernard
  • 514 02:54:51 3100 SETTA Majid
  • 515 02:54:51 6148 KHADDOUR Adnane
  • 516 02:54:53 11284 LIDDLE Kevin
  • 517 02:54:54 11167 HJORT Andreas
  • 518 02:54:55 5288 HEROULT Benjamin
  • 519 02:54:57 4365 SASS Alexander
  • 520 02:54:59 3340 DE SOUSA Jose
  • 521 02:55:00 5713 FIRMIN Nicolas
  • 522 02:55:03 35208 LAROSE Mathieu
  • 523 02:55:06 11202 BONELLO Pascal
  • 524 02:55:09 623 DESANCE Cedric
  • 525 02:55:09 667 PASSARD Matthieu
  • 526 02:55:11 976 MOUTAUD Pierre
  • 527 02:55:12 50940 BATTIKH Haikel
  • 528 02:55:13 5890 KHIRAT Youri
  • 529 02:55:14 6401 HENRY Quentin
  • 530 02:55:16 5847 ESCUAIN Gregory
  • 531 02:55:16 12586 MOORE Aidan
  • 532 02:55:17 5184 LAWRENCE David
  • 533 02:55:17 6677 TASSET Claude
  • 534 02:55:19 6065 BALEZ Bertrand
  • 535 02:55:20 11327 BERMOND Steve
  • 536 02:55:23 4974 BARRELA Jean Michel
  • 537 02:55:23 5331 MOUILA Jacky
  • 538 02:55:24 703 SAIDIA Fathi
  • 539 02:55:24 848 GUICHON Ronan
  • 540 02:55:24 6879 JEAN Fabrice
  • 541 02:55:25 6250 JERKDAL Martin
  • 542 02:55:26 3490 ZANDONELLA Laurent
  • 543 02:55:27 825 PIQUARD David
  • 544 02:55:29 3778 RAMZI Houcine
  • 545 02:55:29 6559 DUFLEXIS Tony
  • 546 02:55:30 5958 FREDERKING Johannes
  • 547 02:55:29 3594 ABDELMALEK Morad
  • 548 02:55:32 10370 TOTH Charles
  • 549 02:55:37 6700 DUFON Frederic
  • 550 02:55:39 5576 HERRERA Joachim
  • 551 02:55:40 4428 CLUSEAU Laurent
  • 552 02:55:43 5564 OLIVIER Christophe
  • 553 02:55:43 6047 HOYAUX Claude
  • 554 02:55:44 805 PAUR Regis
  • 555 02:55:44 11169 PRECHAIS Adrien
  • 556 02:55:45 636 MARTENOT Alain
  • 557 02:55:48 3824 DZIAN Patience
  • 558 02:55:48 5005 TATLOW Mark
  • 559 02:55:49 938 BAERT Eric
  • 560 02:55:49 3103 LABRY Damien
  • 561 02:55:53 4680 MERGALET Stephane
  • 562 02:55:58 758 SCHNYDER Xavier
  • 563 02:55:58 961 DURAND Alain
  • 564 02:55:59 3620 FOUET Nicolas
  • 565 02:55:59 5592 SPORTES Julien
  • 566 02:56:02 4887 COELLO Giorgio
  • 567 02:56:02 6759 CADORNA CRUZ Luis Elias
  • 568 02:56:04 3735 ANGENAULT Olivier
  • 569 02:56:06 3220 UBERBACHER Fredrik
  • 570 02:56:07 6302 CHEVANT Louis
  • 571 02:56:10 593 GILLIGAN Barrie
  • 572 02:56:11 3035 GUIBOUT Etienne
  • 573 02:56:08 6263 ADDANTE Rocco
  • 574 02:56:11 6844 GUILLET Quentin
  • 575 02:56:13 6351 MAILLARD Geoffroy
  • 576 02:56:13 39262 VARGAS SALGADO Andres David
  • 577 02:56:14 1031 MONCHICOURT Cedric
  • 578 02:56:14 11624 SANCHEZ NISO Jose
  • 579 02:56:15 702 CUNY Florent
  • 580 02:56:15 6372 GUYOT Etienne
  • 581 02:56:16 4024 MOREAU Mathieu
  • 582 02:56:16 4892 KOSKI Andreas
  • 583 02:56:17 4733 O_DONNELL Des
  • 584 02:56:18 6798 PARENT Cedric
  • 585 02:56:19 4444 MIGNOT Nicolas
  • 586 02:56:20 699 TREMBLET Stephan
  • 587 02:56:23 3429 FLORENT Olivier
  • 588 02:56:23 3915 LERME Ritvars
  • 589 02:56:25 6007 NICHOLLS Chris
  • 590 02:56:25 6639 FAURE Quentin
  • 591 02:56:25 13863 PHILIPPOT Jerome
  • 592 02:56:26 3956 DIEGO Martinez Ribao
  • 593 02:56:27 4791 ISOLA Jouni
  • 594 02:56:27 6335 HOAREAU Sylvain
  • 595 02:56:27 9861 SANNICOLO Baptiste
  • 596 02:56:28 11602 HARRINGTON Patrick
  • 597 02:56:30 3308 GROSJEAN Virgile
  • 598 02:56:31 817 ROCHEREAU Pascal
  • 599 02:56:28 5420 HOULE Fabrice
  • 600 02:56:32 1007 FLINK Mika
  • 601 02:56:32 1038 SMITH Gavin
  • 602 02:56:34 5127 BOUHEDDOUF Meihdi
  • 603 02:56:36 5668 JOBARD Matthieu
  • 604 02:56:38 617 BEREZIAT Jerome
  • 605 02:56:35 1046 MOINE Patrick
  • 606 02:56:39 4688 BENNETT Adam
  • 607 02:56:40 3189 FEDERICO Simili
  • 608 02:56:42 5303 IRIGOYEN Jean-Sebastien
  • 609 02:56:42 6236 AVERBUCH Bonnie
  • 610 02:56:44 3437 DE BO Frederic
  • 611 02:56:44 4318 LABARTHE-PIOL Benjamin
  • 612 02:56:44 6364 COSTALUNGA Guillaume
  • 613 02:56:44 29674 JAUMAIN Francois
  • 614 02:56:45 3082 DIEKMANN Bernd
  • 615 02:56:47 779 HAMELIN Yoann
  • 616 02:56:47 3900 RECOQUILLE Pierryves
  • 617 02:56:48 781 ANDERSON Johan
  • 618 02:56:49 5037 LEMASLE Sebastien
  • 619 02:56:49 5395 DELANEY Carl
  • 620 02:56:49 11678 LATHUILLE-NICOLLET Anthony
  • 621 02:56:50 891 REGHEM Francois
  • 622 02:56:50 12546 ALLEGAERT Mathias
  • 623 02:56:51 3357 COUILLARD Gregory
  • 624 02:56:51 6255 BRENNAN Daire
  • 625 02:56:51 17161 EVGI Ziv
  • 626 02:56:55 9368 THOMASSIN Kevin
  • 627 02:57:00 3285 SOUPE Sebastien
  • 628 02:57:02 5681 DANIEL Faulkner
  • 629 02:57:03 669 AONO Tatsuya
  • 630 02:57:04 970 GUILLOT Kevin
  • 631 02:57:04 3974 BARROS-TASTETS Thomas
  • 632 02:57:05 1004 HAMADACHE Karim
  • 633 02:57:06 709 LE ROUX Devrig
  • 634 02:57:08 687 GREGOIRE Bruno
  • 635 02:57:08 718 ARRIVE Guillaume
  • 636 02:57:08 4795 DORVEAUX Xavier
  • 637 02:57:09 3971 RAISON Gael
  • 638 02:57:09 5507 HERRMANN Rudiger
  • 639 02:57:10 3157 BAILLY Olivier
  • 640 02:57:10 5305 JULE Fabrice
  • 641 02:57:10 9720 LOBER Niels
  • 642 02:57:11 4679 GRANT Rob
  • 643 02:57:11 11073 PAGNON Laurent
  • 644 02:57:12 3172 FREPPEL Charly
  • 645 02:57:13 5111 ELMER Markus
  • 646 02:57:13 6811 CHERIFIA Farid
  • 647 02:57:13 11634 RODRIGUEZ VELEZ Luis Fernando
  • 648 02:57:14 583 GOUAILLE Christian
  • 649 02:57:14 5888 LASSELIN Vincent
  • 650 02:57:14 6086 CHOPLIN Johann
  • 651 02:57:14 29192 THIMONIER Marie-Aude
  • 652 02:57:15 744 ORANGE Michael
  • 653 02:57:16 739 MOSBRON Ann Kristin
  • 654 02:57:17 3992 BOUCHER Christophe
  • 655 02:57:17 6881 LECOCQ Alexandre
  • 656 02:57:19 828 JAECK Nicolas
  • 657 02:57:19 6535 LESAULT Philippe
  • 658 02:57:20 664 HELBERT Benjamin
  • 659 02:57:20 5041 DANGLETERRE Dimitri
  • 660 02:57:20 6463 LHOTE Jeremy
  • 661 02:57:21 4587 BOISSON Yohann
  • 662 02:57:21 11496 BERGERON Remi
  • 663 02:57:22 700 MEZGUELDI Mohamed
  • 664 02:57:22 1030 MAAROUFI Kamal
  • 665 02:57:22 11594 CHARRIER Martin
  • 666 02:57:23 4400 KERRAND Louis-Marie
  • 667 02:57:23 12774 KICHENIN Edouard
  • 668 02:57:23 35793 LECOCQ Celine
  • 669 02:57:25 1043 TOUAF Rachid
  • 670 02:57:24 3744 PELTIER David
  • 671 02:57:25 4928 VIEUX-ROCHAS Quentin
  • 672 02:57:25 5363 MANSOURI Farid
  • 673 02:57:25 6516 SPIR Sebastien
  • 674 02:57:25 6810 EMMANUEL Eude
  • 675 02:57:25 11685 REGNIER Benoit
  • 676 02:57:28 6006 GIRAUD Sebastien
  • 677 02:57:30 6190 BLIGNY Patrice
  • 678 02:57:31 3812 BAUDIN Jean-Christophe
  • 679 02:57:32 5244 MACE Florent
  • 680 02:57:32 23649 CLERC Stephane
  • 681 02:57:33 871 FRESSE Sebastien
  • 682 02:57:33 5693 TRISTANTE Alberto
  • 683 02:57:34 4370 O_GARA Mark
  • 684 02:57:34 5063 BETTELLI Andrea
  • 685 02:57:34 13754 WOLF Marcel
  • 686 02:57:37 616 SOUVESTE Christophe
  • 687 02:57:37 4494 CALAIS Aurelien
  • 688 02:57:38 4690 CARBONNE Laurent
  • 689 02:57:39 4270 MARTEL Alexandre
  • 690 02:57:39 4793 AMOROS PICO Jose Antonio
  • 691 02:57:40 5641 FRANCOIS Christophe
  • 692 02:57:40 5647 MAZARS Stephane
  • 693 02:57:40 12246 DOUVRY Edouard
  • 694 02:57:41 3271 GATINEAU Vincent
  • 695 02:57:41 5311 MULLER Franck
  • 696 02:57:44 5605 ROZE William
  • 697 02:57:44 5741 DURAND Antoine
  • 698 02:57:45 6041 ANDRIJASEVIC Neven
  • 699 02:57:46 6376 PEEBLES Jonathan
  • 700 02:57:47 4676 LE MILINAIRE Ronan
  • 701 02:57:48 4126 VIENNE Cyril
  • 702 02:57:48 4384 DE LA ROCHEFOUCAULD Charles
  • 703 02:57:48 6547 LOPEZ MORLANES Ismael
  • 704 02:57:48 11257 SERRIES Gregory
  • 705 02:57:49 4454 SUDA Hikaru
  • 706 02:57:52 4113 CHAMORRO MORO Javier
  • 707 02:57:52 5451 HOFFMANN Aurelien
  • 708 02:57:53 929 DEBRUN Thierry
  • 709 02:57:54 945 BRUN Nicolas
  • 710 02:57:54 972 BEAUJEAN Julien
  • 711 02:57:54 3154 FOURTANIER Ludovic
  • 712 02:57:54 11478 GANDELIN Jeremy
  • 713 02:57:55 6279 PILAT Alexandre
  • 714 02:57:55 6711 GABET Yann
  • 715 02:57:56 509 TEJERO Christophe
  • 716 02:57:56 5772 NICOLADZE Marc
  • 717 02:57:56 6842 DEVANEY Neil
  • 718 02:57:57 5314 HAMHAMI Belkhacem
  • 719 02:57:57 5336 ESVAN Yohann
  • 720 02:57:57 5624 BINDERUP JACOBSEN Ulla
  • 721 02:57:58 5904 COLE David
  • 722 02:57:59 5491 LETELLIER Sebastien
  • 723 02:57:58 125 DESMONS Antoine
  • 724 02:58:00 997 THABET Atem
  • 725 02:58:00 12237 RYAN David
  • 726 02:58:02 554 RUAULT Charles-Edouard
  • 727 02:58:02 5307 RUOT Eric
  • 728 02:58:02 5621 LAZZALI Nasser
  • 729 02:48:58 416 MARDI Madani
  • 730 02:58:03 515 DROUHIN Nicolas
  • 731 02:58:04 563 CASTEL Guillaume
  • 732 02:58:06 4792 RUIZ ARCADIO Pablo
  • 733 02:58:07 5973 ABLEY Andrew
  • 734 02:58:08 3704 COT Julien
  • 735 02:58:08 6561 CEM?L Gokce
  • 736 02:58:09 677 STUMPF Nicolas
  • 737 02:58:11 789 DEPREZ Pascal
  • 738 02:58:11 6617 TRABUCHET Ludovic
  • 739 02:58:12 73500 SHREEVE Andrew
  • 740 02:58:13 6549 GRAHM Mikaela
  • 741 02:58:14 6008 ARNESEN Mikael
  • 742 02:58:14 20824 HARINGTON Antonia
  • 743 02:58:15 6692 MONDON Romain
  • 744 02:58:12 6787 JAGOREL Lionel
  • 745 02:58:16 5190 BOCCHIA Marco
  • 746 02:58:18 4209 PETRISSANS Philippe
  • 747 02:58:18 5443 TILLIE Alexis
  • 748 02:58:18 35963 LEPOIL Guillaume
  • 749 02:58:19 3420 VAYSSE Olivier
  • 750 02:58:22 3876 HEDGER Graham
  • 751 02:58:23 9533 FORTES DOS SANTOS Alexandrino
  • 752 02:58:25 506 COLLADO Daniel
  • 753 02:58:25 5672 ORGUES Bruno
  • 754 02:58:28 10235 MAXTED David
  • 755 02:58:26 916 KOUWENHOVEN Wil
  • 756 02:58:29 4766 KOBBEROE Bjarke
  • 757 02:58:30 3152 GARCIA Alejandro
  • 758 02:58:30 6101 LANGER Olivier
  • 759 02:58:31 504 RIGAULT Matthieu
  • 760 02:58:32 692 RICHARD Jean-Baptiste
  • 761 02:58:34 5277 LEBOUVIER Eric
  • 762 02:58:34 5643 NUBEL Anton
  • 763 02:58:34 6512 DAMMANN Fabrice
  • 764 02:58:36 6009 AMPOLLINI Bruno
  • 765 02:58:36 12951 DJEDA Eric
  • 766 02:58:37 4227 MULLER Sebastien
  • 767 02:58:38 1013 HALE Francis
  • 768 02:58:40 6890 OGEZ Karine
  • 769 02:58:41 5857 POTELLE Alain
  • 770 02:58:41 6648 BARBETTE Frederic
  • 771 02:58:42 1021 DOMENECH Renaud
  • 772 02:58:46 6178 QUINTIN Warren
  • 773 02:58:46 12100 FOLEY Simon
  • 774 02:58:47 3543 TARAMINI Guillaume
  • 775 02:58:49 634 MOLINARI Salvatore
  • 776 02:58:49 3582 PARMENTIER Clement
  • 777 02:58:49 5012 GRILLOT Anthony
  • 778 02:58:50 5827 MAYAUD Valentin
  • 779 02:58:52 3942 MICHEL Jonathan
  • 780 02:58:52 4821 DEPIERRE Jerome
  • 781 02:58:52 6058 CETIN Hasan
  • 782 02:58:53 3292 LE GALL Olivier
  • 783 02:58:53 5155 CAMPANA Samuel
  • 784 02:58:53 10664 TERRIER Herve
  • 785 02:58:54 4985 VIRET Guillaume
  • 786 02:58:55 798 BOUGHEMZA Brahim
  • 787 02:58:55 6837 TRAMMA Fred
  • 788 02:58:56 6895 DAMIEN Guillaume
  • 789 02:58:57 759 CLERC Cedric
  • 790 02:58:57 5154 STEPONAVICIUS Antanas
  • 791 02:58:57 5454 MANRESA NOGUERA Evaristo
  • 792 02:58:58 914 CEROUTER Sebastien
  • 793 02:58:59 5481 BANCIELLA ALVARO Miguel Angel
  • 794 02:59:00 513 CHALEAT Etienne
  • 795 02:59:00 577 GREZES Mikael
  • 796 02:59:01 679 BUIS Quentin
  • 797 02:59:01 860 LASEUR Raymond
  • 798 02:59:01 4768 MAILLARD Sebastien
  • 799 02:59:02 5950 PELLET Martin
  • 800 02:59:02 6445 MORANGE Laurent
  • 801 02:59:02 6884 BELLEMARE Bruno
  • 802 02:59:02 6418 BAUDRY Tony
  • 803 02:59:03 11115 KOISTINEN Minna
  • 804 02:59:04 10614 MCGILLIVRAY Richard
  • 805 02:59:04 13026 LACRAMPE Sebastien
  • 806 02:59:05 6584 COROLLEUR David
  • 807 02:59:06 9032 PIERROT Romain
  • 808 02:59:07 3556 GONZALEZ Juan Pablo
  • 809 02:59:07 3830 BLUTTE Remi
  • 810 02:59:09 6154 SCHRODER Jens Ola
  • 811 02:59:09 6573 HENRIQUES Julien
  • 812 02:59:09 9792 MUSTIERE Nicolas
  • 813 02:59:10 3073 LAURENT Benoit
  • 814 02:59:10 4143 ALLARD Bruno
  • 815 02:59:10 6283 FRANCO Mariano
  • 816 02:59:10 6420 THOMAS Frederic
  • 817 02:59:11 3062 PHILIPPOT Jerome
  • 818 02:59:08 4107 RANDOUX Fabrice
  • 819 02:59:11 22364 CHETRIT Yohan
  • 820 02:59:12 3636 MANDON Laurent
  • 821 02:59:13 846 BRIERE Patrick
  • 822 02:59:13 6560 MACIEL Marcelo
  • 823 02:59:13 11735 BEL-BILLOUD Stephane
  • 824 02:59:14 3539 SCHUSTER Latifa
  • 825 02:59:15 6227 PLANTAIN Pierre
  • 826 02:59:15 11610 MOSLEY Andrew
  • 827 02:59:16 5337 LECLERC Willy
  • 828 02:59:17 3639 PIOTROWSKI Leszek
  • 829 02:59:18 4302 BROCKS Luke
  • 830 02:59:18 4529 ARTAULT David
  • 831 02:59:18 5586 DONNELLY Charlie
  • 832 02:59:19 807 HEBERT Boris
  • 833 02:59:20 6340 JAFFRES Philippe
  • 834 02:59:19 6875 BOUVET Adrien
  • 835 02:59:19 52266 CAPELIER Tristan
  • 836 02:59:20 859 GRAHAM James
  • 837 02:59:20 3844 FREREJEAN Pierre
  • 838 02:59:21 543 MOGIS Bruno
  • 839 02:59:21 5598 CUITI Stefano
  • 840 02:59:22 720 FER Yves
  • 841 02:59:22 3140 BLONDEL Raphael
  • 842 02:59:23 3314 FORNER Erwan
  • 843 02:59:23 4071 SAAD Michel
  • 844 02:59:24 18415 CORBEL Gaetan
  • 845 02:59:25 3005 EMERY Renaud
  • 846 02:59:25 4859 DBICO Mathias
  • 847 02:59:25 5405 LUCA Modanese
  • 848 02:59:25 6541 RDZANEK Micha?
  • 849 02:59:26 684 LAULHEY David
  • 850 02:59:26 3056 BRAHIMI Aimad
  • 851 02:59:26 5304 DELERME Samuel
  • 852 02:59:27 3184 MORENO OLIVARES Carlos
  • 853 02:59:27 5839 MENDIA COLAS Ion
  • 854 02:59:27 6500 LE GARDIEN Nicolas
  • 855 02:59:27 33191 JIED Chams-Eddine
  • 856 02:59:29 815 LIETARD Rene-David
  • 857 02:59:30 4900 HAWRYLUK Ireneusz
  • 858 02:59:30 5467 MORIN Guillaume
  • 859 02:59:31 6356 GUERIN Antoine
  • 860 02:59:32 869 MAGE Cedric
  • 861 02:59:32 926 DETHOREY Arnaud
  • 862 02:59:32 973 BURGAUD Thierry
  • 863 02:59:32 4488 DONI Flavio
  • 864 02:59:33 6620 ZALITE Inga
  • 865 02:59:34 3513 BOURDEAU Antoine
  • 866 02:59:34 4896 GIRAUDET DE BOUDEMANGE Stanislas
  • 867 02:59:35 584 THOMAS Yannick
  • 868 02:59:35 6695 LEHACAUT Jocelyn
  • 869 02:59:35 6885 RAVISE Gregory
  • 870 02:59:37 4476 BENNETT Jess
  • 871 02:59:37 4583 GAZE Jean-Fred
  • 872 02:59:37 4906 AMBOISE Sebastien
  • 873 02:59:38 5220 SO?TYS Patryk
  • 874 02:59:38 6206 GILLAS Fabrice
  • 875 02:59:35 22745 GRELIER Eric
  • 876 02:59:39 836 LE FLOCH Herve
  • 877 02:59:41 4761 MATZELLE Shannon
  • 878 02:59:41 5097 SEMBLAT Lucas
  • 879 02:59:41 6794 REDO Franck
  • 880 02:59:41 11209 SEBIA Kamel
  • 881 02:59:42 4335 DAVILA MARINO Oscar
  • 882 02:59:42 6109 TISSIER Bertrand
  • 883 02:59:42 6599 POTTIN Antoine
  • 884 02:59:42 9369 EUSTACHE Guillaume
  • 885 02:59:43 5188 BEGOC Pierre
  • 886 02:59:43 5221 VIARD Marc
  • 887 02:59:43 11281 LARGE Patrick
  • 888 02:59:44 3009 ANDRAUD Eric
  • 889 02:59:45 6694 TALAMINI Carlos Alberto
  • 890 02:59:46 714 CLARINARD Mickael
  • 891 02:59:47 833 LE PICARD Thibaud
  • 892 02:59:47 905 SORIN Yannick
  • 893 02:59:47 3102 FRICAUD Romain
  • 894 02:59:47 6825 BERMUDO Pedro
  • 895 02:59:48 6015 NOEL Yves
  • 896 02:59:48 6645 VENUGOPAL Vijayaraghavan
  • 897 02:59:49 3707 SALVIGNOL Jean
  • 898 02:59:49 5219 PELIGRY Nicolas
  • 899 02:59:49 6181 THEPAUT Mickael
  • 900 02:59:50 3406 BELTRANDO Lionel
  • 901 02:59:51 3511 JULOU Sebastien
  • 902 02:59:51 5817 GINOUVES Amandine
  • 903 02:59:52 875 LANDRY Frederic
  • 904 02:59:52 4044 DELAPORTE Alexis
  • 905 02:59:52 5131 BOUZA FREIRE Jose Luis
  • 906 02:59:53 5787 THEBAULT Laurent
  • 907 02:59:54 983 ESKENAZI Christophe
  • 908 02:59:54 5809 CARLIER Julien
  • 909 02:59:54 6795 MICHELLIER Laurent
  • 910 02:59:55 12083 HABERT Maxime
  • 911 02:59:56 3923 LOPEZ-GRUESO Raul
  • 912 02:59:56 5282 WRIGHT David
  • 913 02:59:56 5526 STASZAK Kevin
  • 914 02:59:56 5580 LEMOINE Julien
  • 915 02:59:57 6801 MORVAN Christophe
  • 916 02:59:59 4100 MAHIEU Romain
  • 917 02:59:59 37582 CLERCKX Kris
  • 918 03:00:00 4623 TESSIER Laurent
  • 919 03:00:00 6244 NIKLAS Molin
  • 920 03:00:00 6683 THIRE Jonathan
  • 921 03:00:00 21596 BLEUZE Jean-Luc
  • 922 03:00:01 11558 BASCHINSKI Lilian
  • 923 03:00:02 772 CHATELAIN Christophe
  • 924 03:00:02 3713 DUPREELLE Francois-Xavier
  • 925 03:00:02 5268 FERNANDES Sebastien
  • 926 03:00:02 6851 DREUMONT Xavier
  • 927 03:00:03 3693 RISACHER Vincent
  • 928 03:00:03 5074 CAPORALE Toni
  • 929 03:00:04 6348 BORIVOJ Cejka
  • 930 03:00:04 13472 LE MELINAIDRE Romain
  • 931 03:00:04 13909 BELTAN Eric
  • 932 03:00:08 4981 VEST Sebastien
  • 933 03:00:08 6425 IMAZATENE Ahmed
  • 934 03:00:10 6403 MESCHAIN Olivier
  • 935 03:00:11 672 RUTSTROM Jenny
  • 936 03:00:12 4692 NIKULIN Oleksandr
  • 937 03:00:13 962 MONTURET Christophe
  • 938 03:00:13 4845 YANN Raimont
  • 939 03:00:15 6042 LOPES Jorge
  • 940 03:00:17 3668 CHAPLAIS Sebastien
  • 941 03:00:17 3920 DEFONTY David
  • 942 03:00:19 10356 BRIMER Roi
  • 943 03:00:19 10956 AIO Guillaume
  • 944 03:00:20 642 ECLACHE Thierry
  • 945 03:00:20 3682 GINSBURG Eugene
  • 946 03:00:21 5106 SIMON Florent
  • 947 03:00:21 6179 PINSARD Jean Yves
  • 948 03:00:23 6115 MATUSZEWSKI Michal
  • 949 03:00:24 901 BECK Baptiste
  • 950 03:00:24 3569 BUNIAK Xavier
  • 951 03:00:28 11508 COSTA MATOS Jorge
  • 952 03:00:29 750 HESNAULT Pierre
  • 953 03:00:29 6588 LANOE Mathieu
  • 954 03:00:29 10942 DUHAMELLE Amaury
  • 955 03:00:29 12503 BRUMANT Philippe
  • 956 03:00:31 959 LESAGE Gildas
  • 957 02:51:27 418 OUGUERD Driss
  • 958 03:00:33 3934 MOURLHON Jean-Christophe
  • 959 03:00:34 3181 BARRABES Lionel
  • 960 03:00:34 3861 KARL Samuelsson
  • 961 03:00:35 13088 WALSH Andrew
  • 962 03:00:38 6074 CALLE Adrien
  • 963 03:00:38 6310 DA CONCEICAO Carlos
  • 964 03:00:39 3889 WALLET Karim
  • 965 03:00:40 637 BELHADAD Louiza
  • 966 03:00:37 6367 NOUGUIER Michel
  • 967 03:00:41 1005 MATTILA Ari
  • 968 03:00:41 3001 HOAREAU Philippe
  • 969 03:00:41 3284 RUVEL Patrick
  • 970 03:00:41 4147 RASMUSSEN Ronny
  • 971 03:00:41 4854 PAWLICKI Nathan
  • 972 03:00:41 5347 CRANE Martin
  • 973 03:00:41 6578 TRAN Xuan
  • 974 03:00:42 21691 CLAUZURE Olivier
  • 975 03:00:44 6075 PELE Damien
  • 976 03:00:44 6321 GOUSSET Philippe
  • 977 03:00:44 6862 ORGEBIN Stephane
  • 978 03:00:45 3250 RONDAUD Antony
  • 979 03:00:43 3732 HILT Aurelien
  • 980 03:00:44 6223 VAN RYSSELBERGHE Johan
  • 981 03:00:49 5381 RONCERAY Maxime
  • 982 03:00:50 882 LAOT Pierre-Yves
  • 983 03:00:50 24946 ESTRAN Remy
  • 984 03:00:51 3939 GOGUET Jeremy
  • 985 03:00:51 4423 GALLARDO Arnaud
  • 986 03:00:51 6135 SAMUELSSON Angelica
  • 987 03:00:52 6389 VANDERDEELEN Joost
  • 988 03:00:53 767 BULLE Nans
  • 989 03:00:54 11409 OUVRARD Aurelien
  • 990 03:00:54 3305 KIRILUK Sarah
  • 991 03:00:54 10991 GRIFFITHS Chantelle
  • 992 03:00:55 4388 TANGUY Sebastien
  • 993 03:00:55 4800 JOHANNESSON Jan
  • 994 03:00:57 5736 GAILLARD Benoit
  • 995 03:00:58 4568 MORENO Eduardo
  • 996 03:00:59 6032 REISCHAUER Marcus
  • 997 03:01:00 534 BLONDEAU Francis
  • 998 03:01:00 6102 BLACK Roland
  • 999 03:01:01 592 DELHAYE Jean-Fabien
  • 1000 03:01:01 4778 JONATHAN Campbell
  • 1001 03:01:03 6760 FONTENAY Karine
  • 1002 03:01:07 5096 CONSEIL Herve
  • 1003 03:01:08 6684 CARISSIMI Bruno
  • 1004 03:01:09 533 DUFFY Stephen
  • 1005 03:01:10 780 OBERLE Thomas
  • 1006 03:01:14 707 MOUSSET Clement
  • 1007 03:01:14 5173 DE MUNCK Tanguy
  • 1008 03:01:15 4280 DUCERF Bruno
  • 1009 03:01:18 943 BLONDEL Benoit
  • 1010 03:01:19 3354 EYMANN Cedric
  • 1011 03:01:19 3977 COEFFEC Stephane
  • 1012 03:01:20 4223 LESAINT Gilbert
  • 1013 03:01:23 5725 MALGARINI Patrice
  • 1014 03:01:26 6370 MORALES MARTIN Guillermo
  • 1015 03:01:27 23612 COUCHMAN Timothy
  • 1016 03:01:28 6563 ARAUJO Miguel
  • 1017 03:01:29 3723 TONDER Mika
  • 1018 03:01:29 4988 SUTCH Jeremy
  • 1019 03:01:29 6752 DAZZI Nicola
  • 1020 03:01:30 6595 LABAILLE David
  • 1021 03:01:33 738 MAMECHE Jamel
  • 1022 03:01:33 3621 BAUDOUIN Philippe
  • 1023 03:01:33 11372 MARQUET Jordan
  • 1024 03:01:36 6089 BAUCHET Eric
  • 1025 03:01:37 1052 BOUFARIHA Abdeljalil
  • 1026 03:01:37 3410 TAYLOR George
  • 1027 03:01:37 3557 HINRICHSEN Thomas
  • 1028 03:01:37 6448 MANIER David
  • 1029 03:01:39 3389 QUINTIN Pascal
  • 1030 03:01:39 4123 CLOCHEZ Guillaume
  • 1031 03:01:39 4408 MEDINA GARCIA Francisco Luis
  • 1032 03:01:39 5663 PEREIRA Jeremy
  • 1033 03:01:40 578 FERNANDEZ Mathieu
  • 1034 03:01:40 4117 DAVIES James
  • 1035 03:01:41 3520 MOLYAVKINA Svetlana
  • 1036 03:01:42 5093 FALAMARZI Masood
  • 1037 03:01:43 5582 SCULLY Michael
  • 1038 03:01:43 30312 QI Ray
  • 1039 03:01:45 3885 VAHTER Kait
  • 1040 03:01:48 3348 DUFOUR David
  • 1041 03:01:48 3891 BENOI Sylvain
  • 1042 03:01:48 5951 TORP Sindre
  • 1043 03:01:49 3363 DAHANE Othmane
  • 1044 03:01:49 3709 ROSE Frederic
  • 1045 03:01:49 11101 BUYTAERT Jan
  • 1046 03:01:52 5651 DUTOTE Valentin
  • 1047 03:01:52 5699 RUSSIER Julien
  • 1048 03:01:52 6207 HAO Zhengwei
  • 1049 03:01:53 3826 LEPRETRE Frederic
  • 1050 03:01:53 3857 MONTFORT Louis
  • 1051 03:01:53 4515 MALEVIALLE Guillaume
  • 1052 03:01:53 4649 BARAJAS FLORES Alberto Jesus
  • 1053 03:01:53 5034 LAMOUR Xavier
  • 1054 03:01:53 11453 ANDREI Melnik
  • 1055 03:01:54 5930 MARTINEZ Miguel
  • 1056 03:01:54 11657 WOTHERSPOON Robert
  • 1057 03:01:56 608 MENARD Christophe
  • 1058 03:01:56 11100 OLIVIER Damien
  • 1059 03:01:57 782 KUNKEL Maximilian
  • 1060 03:01:57 4771 COHEN Omer
  • 1061 03:01:58 6248 MANIC Nicolas
  • 1062 03:01:58 12466 LE PEIH Fabien
  • 1063 03:01:59 1018 GUICHOUX Stephane
  • 1064 03:01:59 4992 LARSEN Kjetil
  • 1065 03:01:59 20329 SOTO Jose
  • 1066 03:02:00 3362 COUTANCE Bastien
  • 1067 03:02:00 4124 CHAUVET Samuel
  • 1068 03:02:01 11180 ELBESHAUSEN Mischa
  • 1069 03:02:04 585 PINEAU Marceau
  • 1070 03:02:04 3535 HAYDOCK Monica
  • 1071 03:02:05 3894 LAPALUS Denis
  • 1072 03:02:05 3896 AFTIS Larbi
  • 1073 03:02:05 11587 HERAUD Sylvain
  • 1074 03:02:05 13830 TOEBAT Christophe
  • 1075 03:02:06 944 MAMALET Dominique
  • 1076 03:02:03 5823 DA SILVA Antonio
  • 1077 03:02:07 4978 BRETIN Gilles
  • 1078 03:02:08 4006 LHERBIER Gilles
  • 1079 03:02:09 3486 BOURGAIN Sebastien
  • 1080 03:02:09 3792 COHEN Asaf
  • 1081 03:02:11 24215 DEKKER Paul
  • 1082 03:02:12 3672 HABERT Adrien
  • 1083 03:02:12 19036 DA SILVA Alexandre
  • 1084 03:02:13 3482 VATIER Cedric
  • 1085 03:02:15 5009 DE CASSON Erwan
  • 1086 03:02:15 6338 MARLOT Sebastien
  • 1087 03:02:16 5585 LAUDADIO Mirko
  • 1088 03:02:19 10899 FERRON Patrice
  • 1089 03:02:23 4469 NOORDSTAR Christina
  • 1090 03:02:24 6557 AKAY Onder
  • 1091 03:02:26 1024 CHAILLEUX Hermann
  • 1092 03:02:27 6673 PIC Daniel
  • 1093 03:02:29 4886 MILIERE Jean-Luc
  • 1094 03:02:29 5459 PASCAL Jerome
  • 1095 03:02:30 784 MARTAGNI Sylvie
  • 1096 03:02:30 5162 SAIDI Samy
  • 1097 03:02:31 5020 UCELLI Robin
  • 1098 03:02:33 4971 RODRIGUEZ LIZANA Miguel Angel
  • 1099 03:02:35 3352 AKRICHE Hatem
  • 1100 03:02:37 670 HEDJAZI Karim
  • 1101 03:02:38 519 ALBERTINI Eric
  • 1102 03:02:38 3032 GLOTAIN Anthony
  • 1103 03:02:38 61175 RONCELIN Xavier
  • 1104 03:02:40 6562 CHARLOUP Anita
  • 1105 03:02:41 5344 EYMARD Sebastien
  • 1106 03:02:41 11416 BAMMEZ Bastien
  • 1107 03:02:42 49577 CHUNG James
  • 1108 03:02:43 4668 LEO Krikhaar
  • 1109 03:02:43 6675 FROMENTIN Olivier
  • 1110 03:02:44 5673 PEYRONNENC Sebastien
  • 1111 03:02:48 3961 CZARTOWSKI Grant
  • 1112 03:02:48 4337 CICLET Pascal
  • 1113 03:02:48 6116 BRIFFOD Francois-Xavier
  • 1114 03:02:48 6640 DOURADO Hugo
  • 1115 03:02:49 19986 SOUILLET-DESERT Clement
  • 1116 03:02:50 5172 NGUYEN Thanh-Dung
  • 1117 03:02:50 6054 PERRIN Yannick
  • 1118 03:02:50 6864 HUBERT Antoine
  • 1119 03:02:50 11656 GUTIERREZ Corentin
  • 1120 03:02:51 3928 OTT Xavier
  • 1121 03:02:51 5819 LENOIR Timothee
  • 1122 03:02:51 11247 WILLIAMS Vincent
  • 1123 03:02:52 3531 STANSFIELD Sion
  • 1124 03:02:53 5210 PROVOST Dominique
  • 1125 03:02:55 11515 MERREGAERT Bruno
  • 1126 03:02:56 3026 TAMALET Clement
  • 1127 03:02:57 5922 DAHLBACKA Sebastian
  • 1128 03:02:56 9459 BLIND Anthony
  • 1129 03:02:57 6515 ENNADIFI Halim
  • 1130 03:02:57 23092 GARCIA Cedric
  • 1131 03:02:58 3962 LAMOUR Yvon
  • 1132 03:02:59 967 POTTIER Didier
  • 1133 03:02:59 19690 BARTHELEMY Maxime
  • 1134 03:02:59 524 MAURY Olivier
  • 1135 03:03:02 6874 OULDYAHIA Mhana
  • 1136 03:03:03 755 FORTIN Emmanuel
  • 1137 03:03:03 1035 VANAGS Janis
  • 1138 03:03:03 4584 LACASSAGNE Jean Marc
  • 1139 03:03:03 6490 DELENTE Etienne
  • 1140 03:03:04 11876 RYAN Thomas
  • 1141 03:03:04 12974 BLAIR Ian
  • 1142 03:03:05 9739 GOBLET Laurent
  • 1143 03:03:06 3965 CHESNEY Thibault
  • 1144 03:03:06 4085 SCHMIT Olivier
  • 1145 03:03:06 5088 LASRY Elie
  • 1146 03:03:07 3199 LAHCEN Moktar
  • 1147 03:03:06 4781 PAEZ Lucas
  • 1148 03:03:07 5479 MCCLELLAND Joel
  • 1149 03:03:06 11087 PAEZ Sebastien
  • 1150 03:03:09 1023 DAVILLER Julien
  • 1151 03:03:10 5112 MARQUES Nuno
  • 1152 03:03:10 6630 BAUJARD Jean-Marc
  • 1153 03:03:12 715 FERRARESE Maurizio
  • 1154 03:03:12 4812 COUSSI Julien
  • 1155 03:03:13 4975 OILAD ADJ AMAR Farid
  • 1156 03:03:13 5417 FEVRIER Jerome
  • 1157 03:03:14 6860 MICHEL Yves
  • 1158 03:03:15 3431 CHASSAGNARD Thomas
  • 1159 03:03:16 3080 LEFRANCOIS Guillaume
  • 1160 03:03:16 3512 PHILIPPE Olivier
  • 1161 03:03:16 12357 NICAISE Antoine
  • 1162 03:03:18 5555 PEPION Cedric
  • 1163 03:03:19 3963 QUENUT Laurent
  • 1164 03:03:20 3051 THEBAULT Jerome
  • 1165 03:03:20 6631 ROHRER Pierre-Alain
  • 1166 03:03:21 3053 MAUDUIT Christian
  • 1167 03:03:21 9640 THOMASSON William
  • 1168 03:03:24 6077 GALESNE Herve
  • 1169 03:03:24 23072 DANDY Lila
  • 1170 03:03:25 11822 NEBOT VALVERDE Juanvi
  • 1171 03:03:27 6037 ANGOT Olivier
  • 1172 03:03:28 5329 CAMAGNA Pierre
  • 1173 03:03:31 716 MESLET Frederic
  • 1174 03:03:31 5947 FONT Victor
  • 1175 03:03:31 12773 ABELLI Paul
  • 1176 03:03:32 5701 BREWSTER Jack
  • 1177 03:03:33 3301 TIRET Edouard
  • 1178 03:03:33 4369 POTREL Severine
  • 1179 03:03:34 3206 AUBRY Jean-Michel
  • 1180 03:03:34 6402 FAURE Teddy
  • 1181 03:03:35 51677 LOCHEY David
  • 1182 03:03:36 3478 OUESLATI Amaury
  • 1183 03:03:36 4180 VALDES Jaime
  • 1184 03:03:37 5374 KEROUANTON Alexandre
  • 1185 03:03:39 885 PEUCHOT Florian
  • 1186 03:03:39 5841 RASSELET Clement
  • 1187 03:03:37 9075 GUION Marc Antoine
  • 1188 03:03:41 5487 BOULIER Remi
  • 1189 03:03:42 5017 LEGOFFE Mikael
  • 1190 03:03:43 3385 HENROTTE Philippe
  • 1191 03:03:45 5366 BISSONET Frederic
  • 1192 03:03:45 5429 JACQUES Marc
  • 1193 03:03:45 6494 GOUGEON Anthony
  • 1194 03:03:46 3937 NUTZI Roger
  • 1195 03:03:46 25369 JACQUEMIN David
  • 1196 03:03:48 5783 CALAIS Gabriel
  • 1197 03:03:48 6064 SCOTTO Romain
  • 1198 03:03:49 5126 MARIN Patrice
  • 1199 03:03:50 511 PEOU Jean-Emmanuel
  • 1200 03:03:50 4157 LUMINEAU Emmanuel
  • 1201 03:03:51 985 BARILLEAU Didier
  • 1202 03:03:51 3775 CALLERI Stephane
  • 1203 03:03:52 4381 MINET Frederic
  • 1204 03:03:52 4824 BANKS Doug
  • 1205 03:03:53 5735 MICHELI Jerome
  • 1206 03:03:54 9524 GLOANEC Yann
  • 1207 03:03:56 681 DE ALMEIDA Mickael
  • 1208 03:03:56 4758 CASTEL Gregory
  • 1209 03:03:58 6747 SEIBERTH Gabriel
  • 1210 03:04:00 851 COUPAIN Paul
  • 1211 03:04:00 4578 HOSKING Alexander
  • 1212 03:04:00 4697 DENAIRE Benjamin
  • 1213 03:04:01 3342 PAYEN Nicolas
  • 1214 03:04:02 964 MAHAMANE Karim
  • 1215 03:04:02 13108 DIXON Jonathan
  • 1216 03:04:04 3716 SAAIDOU Kamal
  • 1217 03:04:04 5174 LITHERLAND Rory
  • 1218 03:04:04 138 FERREIRA Filipe
  • 1219 03:04:05 580 CHIQUITO Yannick
  • 1220 03:04:05 5129 BELLEAU Cyrille
  • 1221 03:04:06 995 PALACIOS Leonardo Manuel
  • 1222 03:04:06 3660 DAHO Benhamel
  • 1223 03:04:06 6394 MARTINS Ludovic
  • 1224 03:04:07 3383 DELMAS Sylvain
  • 1225 03:04:08 4104 MARTEL Serge
  • 1226 03:04:08 6893 RETHORE Franck
  • 1227 03:04:11 3012 BUSSONE Guillaume
  • 1228 03:04:11 5834 COULON Pierrick
  • 1229 03:04:11 13356 MICHETTI Andrea
  • 1230 03:04:12 13832 POIRIER Fredy
  • 1231 03:04:13 6755 CHEVIGNARD Nicolas
  • 1232 03:04:15 5574 RONCAGLIONE Claude
  • 1233 03:04:15 6061 MORANI Evian
  • 1234 03:04:15 11830 MOREAU Romain
  • 1235 03:04:17 939 JAOUAN Guirec
  • 1236 03:04:17 4810 LAMOTTE Laurent
  • 1237 03:04:18 3506 TEHRANI Ash
  • 1238 03:04:18 4395 VINCENT Riviere
  • 1239 03:04:19 3767 BOSSE Emmanuel
  • 1240 03:04:19 5257 FARROUIL Aurelien
  • 1241 03:04:19 9696 CALOIN Jean-Francois
  • 1242 03:04:21 5604 AZDAOU Omar
  • 1243 03:04:22 5232 JENS Claus Walther
  • 1244 03:04:23 4250 EL ALIOUI Nasser
  • 1245 03:04:25 4582 PIEKIELNY Mariusz
  • 1246 03:04:27 5801 LOR Chun Kiak
  • 1247 03:04:28 549 DERDAR Nassim
  • 1248 03:04:28 4361 LOMBARD Romain
  • 1249 03:04:28 5186 H_NINI Chafik
  • 1250 03:04:29 6305 MARTORELL Thierry
  • 1251 03:04:29 11240 BELTRAMELLI Pierre
  • 1252 03:04:30 3432 FERNANDEZ CUESTA Angel
  • 1253 03:04:30 6241 MOLCHANOV Dmytro
  • 1254 03:04:32 3551 LEIGNEL Laurent
  • 1255 03:04:33 922 SALTALAMACCHIA Diego
  • 1256 03:04:33 5606 LESTABLE Pascal
  • 1257 03:04:36 4129 GAUDIN Olivier
  • 1258 03:04:37 9529 BARBIER Anthony
  • 1259 03:04:38 4177 SHIRLEY Damian
  • 1260 03:04:38 6768 BERTHIER Jean-Michael
  • 1261 03:04:38 21655 JUSTICE Pierre-Adrien
  • 1262 03:04:39 3328 MORELLI Jean Claude
  • 1263 03:04:40 3247 MAULAVE Marc
  • 1264 03:04:40 11131 DAN Cahill
  • 1265 03:04:40 11160 COUPPE Christian
  • 1266 03:04:40 65281 DELANNEE Yann
  • 1267 03:04:41 564 QUERAUD Emmanuel
  • 1268 03:04:42 4171 BEAUSSART Sebastien
  • 1269 03:04:42 5110 JEAN BAPTISTE Luc Benjamin
  • 1270 03:04:42 5774 JIMENEZ Miguel Angel
  • 1271 03:04:42 6682 BIRAULT Ludovic
  • 1272 03:04:44 4914 HERNANDEZ ORIOLA Salvador
  • 1273 03:04:44 6664 SCHMITT Jose Manuel
  • 1274 03:04:45 3123 NOMMER Martin
  • 1275 03:04:46 5240 FAGES Benjamin
  • 1276 03:04:46 16831 LEFORT Stephane
  • 1277 03:04:48 6435 BOURCIER Stephane
  • 1278 03:04:48 18390 ROUSSELLE Baptiste
  • 1279 03:04:49 6476 GIROUD Thomas
  • 1280 03:04:50 9156 CUPIS Leslie
  • 1281 03:04:52 5794 ROMAIN Castelli
  • 1282 03:04:54 5029 AUFAURE Sebastien
  • 1283 03:04:54 5309 DREANO Thierry
  • 1284 03:04:54 10366 ACCOS Ronen
  • 1285 03:04:54 12099 BROWN Kristen
  • 1286 03:04:55 690 HEITZ Sebastien
  • 1287 03:04:55 5855 MERRER Christophe
  • 1288 03:04:56 5762 HAMMER Herve
  • 1289 03:04:56 5791 ARROYO GUILLAMON Rafael
  • 1290 03:04:56 13644 MOUTON Romain
  • 1291 03:04:57 1042 NANIWE Gilles
  • 1292 03:04:57 12330 CARRILHO Marcio
  • 1293 03:05:02 878 CHAN Shan Ching
  • 1294 03:05:02 11563 MOLLAN Rune
  • 1295 03:05:03 5685 VALLAS Marc
  • 1296 03:05:03 6231 GILL James
  • 1297 03:05:04 6366 ROBIN Christophe
  • 1298 03:05:05 6387 COUPE Denis
  • 1299 03:05:06 3954 OVEJA VILLAFANE Celestino
  • 1300 03:05:03 4935 NOMMER Thomas
  • 1301 03:05:06 4998 MAILLARD Anthony
  • 1302 03:05:06 5089 TEYSSONNIER Michael
  • 1303 03:05:06 5189 DE POULPIQUET Alban
  • 1304 03:05:06 12172 BELTRAN Renaud
  • 1305 03:05:07 710 MALOIR Pierre
  • 1306 03:05:09 510 CONNELL James
  • 1307 03:05:09 5746 SUSNIK Gregor
  • 1308 03:05:10 6412 MATEOS GREDILLA Luis
  • 1309 03:05:11 3287 GRANIER Jean-Laurent
  • 1310 03:05:11 5698 ESSALKI Mymy
  • 1311 03:05:11 5711 TURPAULT Francois
  • 1312 03:05:12 3683 GOUSSET Jonathan
  • 1313 03:05:12 9013 CHOQUET Jeremy
  • 1314 03:05:13 10521 CHAMPBENOIT Patrick
  • 1315 03:05:13 21608 PERET Laurent
  • 1316 03:05:16 5011 RUIZ-DIEZ Rebeca
  • 1317 03:05:16 5159 TERA CASADO Francisco Javier
  • 1318 03:05:16 5246 LUCAS Tim
  • 1319 03:05:16 5493 SHIRKHANI Davood
  • 1320 03:05:17 3756 BIHEL Thomas
  • 1321 03:05:17 4555 CRESPEL Paul
  • 1322 03:05:17 6318 OULD YOUNES Chabane
  • 1323 03:05:17 22354 REMOND Sebastien
  • 1324 03:05:18 6423 STURTZER Yves
  • 1325 03:05:19 3229 GOGUEL Remi
  • 1326 03:05:19 24740 BERGER Frank
  • 1327 03:05:21 816 NABINEAU Cyril
  • 1328 03:05:21 4853 BRACHET Laurent
  • 1329 03:05:21 5091 TALLERI William
  • 1330 03:05:21 5571 VILLARD Yann
  • 1331 03:05:21 6870 COSTANTINI Pier Giorgio
  • 1332 03:05:23 71469 RICORD Anne
  • 1333 03:05:24 5411 HUCY Gilles
  • 1334 03:05:24 6632 CONIGLIO Laurent
  • 1335 03:05:25 10635 KAPLER Bernard
  • 1336 03:05:25 13523 THIBAUD Erwann
  • 1337 03:05:25 61953 LELEU David
  • 1338 03:05:26 3589 TALIBART Nils
  • 1339 03:05:26 4322 BEMBEN Dariusz
  • 1340 03:05:26 5212 ?UKIEWICZ Maciej
  • 1341 03:05:26 11047 SCHMITZ Tom
  • 1342 03:05:27 3661 WIBLE Martin
  • 1343 03:05:27 3913 SOBRINO Karen
  • 1344 03:05:27 16875 DERVAUX Raphael
  • 1345 03:05:28 5158 PUSHKAREV Aleksandr
  • 1346 03:05:28 6444 JUBET Fabien
  • 1347 03:05:28 11706 LAURENT Berthouloux
  • 1348 03:05:30 4753 SCOTT Bruce
  • 1349 03:05:30 9931 HENRI Cedric
  • 1350 03:05:30 12652 PRUCKNER Christian
  • 1351 03:05:31 4739 GREEN Chris
  • 1352 03:05:32 5627 RICHOMME Jean Pierre
  • 1353 03:05:32 5919 FERREIRA Juan
  • 1354 03:05:32 11060 LEHMUS Timo
  • 1355 03:05:33 6067 GEVORKYAN Mikael
  • 1356 03:05:34 6053 CZOP Cyprian
  • 1357 03:05:34 10784 QUENIN-CAHN Maxime
  • 1358 03:05:35 23403 BARRAIS Tony
  • 1359 03:05:36 9656 PINEL Bertrand
  • 1360 03:05:37 4169 BESSETTE Olivier
  • 1361 03:05:37 11176 VANKRUNKELSVEN Patrik
  • 1362 03:05:38 3711 DUSSART Antoine
  • 1363 03:05:39 5669 MARIONNEAU Christophe
  • 1364 03:05:41 552 MENARD Karl
  • 1365 03:05:41 657 LE DIOURON Alain
  • 1366 03:05:41 3139 THUILLIER Laurent
  • 1367 03:05:43 6705 DEN ELZEN Brett
  • 1368 03:05:44 4484 CABARDOS Rene
  • 1369 03:05:45 4794 GOLDRING Peter
  • 1370 03:05:46 5292 BERNEUIL Stephane
  • 1371 03:05:46 13020 DELBECQ Guillaume
  • 1372 03:05:46 20637 BASTO Jorge
  • 1373 03:05:47 3671 EL MORABET Mehdy
  • 1374 03:05:50 5611 DUCLOS Mickael
  • 1375 03:05:51 6489 DUGOUJON Cyrille
  • 1376 03:05:52 3129 VIEY Martial
  • 1377 03:05:52 5674 FORTIS Michele
  • 1378 03:05:52 37874 REVAULT Gwendoline
  • 1379 03:05:54 6093 KOLB Romain
  • 1380 03:05:55 3256 DE ROUW Jurriaan
  • 1381 03:05:56 799 TREUIL Christophe
  • 1382 03:05:56 5607 DESPROGES Frederic
  • 1383 03:05:56 6085 CANDILLIER Francois-Xavier
  • 1384 03:05:57 4815 PAGEOT Walter
  • 1385 03:05:57 6735 LEJEUNE Pierre
  • 1386 03:05:57 10489 ATTI Samir
  • 1387 03:05:58 5729 JEAN Ludovic
  • 1388 03:05:59 5812 STRICK Yoel
  • 1389 03:06:02 20888 WEIGHILL Oliver
  • 1390 03:06:03 4747 MARIO Mattei
  • 1391 03:06:03 44690 LEBAS Michel
  • 1392 03:06:05 3459 PIEBER Hanspeter
  • 1393 03:06:05 5968 MUSTONE Bruno
  • 1394 03:06:07 845 CORSINI Jean Noel
  • 1395 03:06:08 3112 LABREURE Christophe
  • 1396 03:06:08 3415 ALMEIDA Jose
  • 1397 03:06:11 610 SHIU Paul
  • 1398 03:06:12 4784 DAVID Ludovic
  • 1399 03:06:13 3403 LE ROUZIC Julien
  • 1400 03:06:14 3343 AZZI Rachid
  • 1401 03:06:14 4076 RAAB Lyazid
  • 1402 03:06:14 4701 ZERGUINE Badisse
  • 1403 03:06:15 6126 BRANCHINI Luca
  • 1404 03:06:16 725 LAAKSO Antti
  • 1405 03:06:16 4780 BALLEN Jorge
  • 1406 03:06:18 23806 DEVENEY Callum
  • 1407 03:06:19 6528 DEROSIER Vincent
  • 1408 03:06:20 4955 OLIVIER Moreno
  • 1409 03:06:21 3356 DAVID Patrick
  • 1410 03:06:21 3749 CARRE Olivier
  • 1411 03:06:21 4833 CLAVIER Ludovic
  • 1412 03:06:21 6508 ALARD Christian
  • 1413 03:06:22 3509 LADAM Guy
  • 1414 03:06:23 4937 LETASSEY Gilles
  • 1415 03:06:23 5887 ARCHAS Ludovic
  • 1416 03:06:24 6833 MARLIER Nathanael
  • 1417 03:06:26 3377 DUPUICH Cedric
  • 1418 03:06:26 3434 LEGO Stanislas
  • 1419 03:06:26 5584 VLADIMIROV Igor
  • 1420 03:06:26 6192 VAN RYSSELBERGHE Eric
  • 1421 03:06:26 29486 MORENO CRUZ Cecilia
  • 1422 03:06:27 11762 FRANCESCO De Palo
  • 1423 03:06:28 11615 DESCHAMPS Bruno
  • 1424 03:06:29 3303 GUILLOT William
  • 1425 03:06:29 4477 CALVANICO Vincenzo
  • 1426 03:06:29 5138 CLAVREUL Bruno
  • 1427 03:06:30 6277 ROTA Mose’
  • 1428 03:06:31 4450 SLIMANI Abdelah
  • 1429 03:06:33 4552 PELAEZ FANJUL Alfredo
  • 1430 03:06:33 5250 BRIDDON Matt
  • 1431 03:06:33 11005 TOMBLESON Matthew
  • 1432 03:06:34 9453 MESDAG David
  • 1433 03:06:34 9691 BREGEON Pascal
  • 1434 03:06:35 29791 MORGAN Philip
  • 1435 03:06:36 3618 ALBUST Stefan
  • 1436 03:06:36 6230 VINCENT Peter
  • 1437 03:06:37 5870 ROSATI Christophe
  • 1438 03:06:38 5060 VINEL Sebastien
  • 1439 03:06:39 3602 NEDELEC Julien
  • 1440 03:06:40 5049 KURT Julien
  • 1441 03:06:40 13546 GOMEZ RIERA Sergi
  • 1442 03:06:41 6316 NOUGAREDE Romain
  • 1443 03:06:42 5042 ZUMBRUNNEN Marc
  • 1444 03:06:43 24867 HENNART Denis
  • 1445 03:06:45 5677 ST. AMANT Paul
  • 1446 03:06:46 6636 ROCHE Gael
  • 1447 03:06:46 9729 KIEFER Christian
  • 1448 03:06:46 9925 MANAL Abdallah Saoud
  • 1449 03:06:46 10774 HELLBERG Jari
  • 1450 03:06:47 3419 VIAL Jean Christophe
  • 1451 03:06:48 12563 PETIT Pascal
  • 1452 03:06:50 4495 HALINEN Jani
  • 1453 03:06:51 596 AMIRY Alain
  • 1454 03:06:51 3754 ARNAUD Joel
  • 1455 03:06:52 13601 PUTMAN Nicolas
  • 1456 03:06:53 5573 KOULAKIS Emmanouil
  • 1457 03:06:53 5756 GUILHEM Orlhac
  • 1458 03:06:53 12665 HELMERT Christian
  • 1459 03:06:54 685 CAVALIER Emmanuel
  • 1460 03:06:54 5217 CHEVALIER Laurent
  • 1461 03:06:54 9823 BIDART Marie Helene
  • 1462 03:06:56 6770 MARTINEZ SAMPEDRO Carlos
  • 1463 03:06:56 12583 DIERNAZ Jean Pierre
  • 1464 03:06:57 42906 NOUGIER Remy
  • 1465 03:06:58 4451 NASAKKALA Martti
  • 1466 03:06:58 9559 REDOR Alexis
  • 1467 03:06:59 4691 LEGHDAICH El Hassan
  • 1468 03:07:00 4532 CONGARD Eric
  • 1469 03:07:02 11259 DOCHY Christoph
  • 1470 03:07:04 12920 DELALANDRE Alexandre
  • 1471 03:07:05 4033 PEREZ GIL Santiago
  • 1472 03:07:08 3039 HOURRIER Olivier
  • 1473 03:07:08 5360 CARRASCO CARRASCO Miguel Angel
  • 1474 03:07:08 12007 SANGLIER Brice
  • 1475 03:07:10 4456 ZHANG Peng
  • 1476 03:07:11 11365 PEREZ Antonio
  • 1477 03:07:12 6413 KHTIRA LAZIZI Farid
  • 1478 03:07:12 6718 PELLETIER Francois
  • 1479 03:07:13 3400 GONTE Frederic
  • 1480 03:07:13 13237 LEMONNIER Franck
  • 1481 03:07:14 11166 ROCHETTE David
  • 1482 03:07:15 10048 GEORGE Jason
  • 1483 03:07:16 5430 BENBEKHTI Farid
  • 1484 03:07:17 5866 REBIERE Mikael
  • 1485 03:07:17 6289 MILLER Christopher
  • 1486 03:07:18 814 CAPLIER Pascal
  • 1487 03:07:18 877 HAREAU Stephane
  • 1488 03:07:18 3144 AGOUT Arnault
  • 1489 03:07:18 4590 KIRK Mads
  • 1490 03:07:19 3046 ANTONINO Ferrara
  • 1491 03:07:21 786 JOUNIAUX Olivier
  • 1492 03:07:23 9122 LIDBETTER Jay
  • 1493 03:07:23 11193 LORENT Julien
  • 1494 03:07:24 3411 KASPERSSON Tomas
  • 1495 03:07:24 17292 MOTTIER Vincent
  • 1496 03:07:25 5989 SAUNDERS David
  • 1497 03:07:26 6581 MONIER Jean-Yves
  • 1498 03:07:26 19198 MONTEMBAULT Stephane
  • 1499 03:07:27 12884 BRAEKMAN Davy
  • 1500 03:07:28 5380 RIPOLL Alexandre
  • 1501 03:07:30 10888 DESTOUESSE David
  • 1502 03:07:30 12762 HUERTA GOMEZ Alejandro
  • 1503 03:07:31 4870 VILLIAUME Gregoire
  • 1504 03:07:31 11532 BAHRI Raphael
  • 1505 03:07:31 12490 PRESSOIR Jimmy
  • 1506 03:07:32 6791 TACHON Pierre-Yves
  • 1507 03:07:33 4656 JEFFORD Mark
  • 1508 03:07:33 6264 GEFTER WONDRICH Riccardo
  • 1509 03:07:33 50337 CASSU Laurent
  • 1510 03:07:35 65082 BAUGUIN Aymeric
  • 1511 03:07:36 5500 PERRACHON Adrien
  • 1512 03:07:36 9605 HOLIN Marc-Antoine
  • 1513 03:07:37 4401 LE BERRE Olivier
  • 1514 03:07:37 6360 POJER Alain
  • 1515 03:07:37 9376 BOURGUIGNON Stephane
  • 1516 03:07:38 5639 MIHELICH Martin
  • 1517 03:07:39 9373 AMOS Mark
  • 1518 03:07:40 5218 DAMIENS Philippe
  • 1519 03:07:40 33790 TOUIL Driss
  • 1520 03:07:41 11348 TAILLANDIER Franck
  • 1521 03:07:42 884 FRUCHART Nicolas
  • 1522 03:07:43 6699 DURAND Benoit
  • 1523 03:07:46 3612 LEVILLAIN Fabrice
  • 1524 03:07:48 607 BLANDIN Fabrice
  • 1525 03:07:48 10134 DIEBOLD Dennis
  • 1526 03:07:50 793 ATALAND Mehdi
  • 1527 03:07:50 13668 ETIENNE Herve
  • 1528 03:07:50 19250 BUGNY Alexandre
  • 1529 03:07:51 4014 PIERRISNARD Sebastien
  • 1530 03:07:51 5351 DEHAIES Romuald
  • 1531 03:07:53 5048 FOUBERT Benoit
  • 1532 03:07:53 11872 FERRIS Leigh
  • 1533 03:07:56 502 UHDE Ingo
  • 1534 03:07:56 6708 BENJAMIN Michel
  • 1535 03:07:56 11153 LESZCZYNSKI Tomasz
  • 1536 03:07:56 20016 HERNANDEZ Gael
  • 1537 03:07:57 4095 TOUMI Mohamed
  • 1538 03:07:57 4783 DERRE Laurent
  • 1539 03:07:58 9544 MONIER Yves
  • 1540 03:08:00 4305 JURE?I? Miha
  • 1541 03:08:00 5028 DEL CORRAL REY Fernando
  • 1542 03:08:01 3515 WASIAK Tomasz
  • 1543 03:08:01 3948 ABELLAN Alexandre
  • 1544 03:08:02 5450 SANTOS COSTA Urbano
  • 1545 03:08:04 3085 CHAMBRON Jean Claude
  • 1546 03:08:04 3916 VAZQUEZ IGLESIAS Antonio
  • 1547 03:08:04 3943 CARNERO David
  • 1548 03:08:04 4849 AMROUNE Kamel
  • 1549 03:08:07 5969 TYSON Ian
  • 1550 03:08:07 6510 ROSSIGNOL Olivier
  • 1551 03:08:08 6361 POUGNAUD Wilfrid
  • 1552 03:08:09 6462 LEVEQUE Gregory
  • 1553 03:08:10 9056 LAVIT Vincent
  • 1554 03:08:12 6433 LINXE Pascal
  • 1555 03:08:13 3462 MORIVAL Jimmy
  • 1556 03:08:13 5362 MASSY Julien
  • 1557 03:08:15 6251 SWEATMAN James
  • 1558 03:08:15 10375 VOUILLOT Adrien
  • 1559 03:08:16 3933 DINO Plazzotta
  • 1560 03:08:16 6523 LE BRAS Ludovic
  • 1561 03:08:17 5157 MARIN PALAZON Tomas
  • 1562 03:08:17 5985 LETOMBE Benoit
  • 1563 03:08:18 4579 BERTIN Julien
  • 1564 03:08:18 6657 JEGO Julien
  • 1565 03:08:18 18550 BAVIERA Pierre
  • 1566 03:08:19 3987 YVERNEAU Olivier
  • 1567 03:08:20 689 ST-JACQUES Carl
  • 1568 03:08:20 6688 BOURAS Belgacem
  • 1569 03:08:23 13619 HEMARD Frederic
  • 1570 03:08:21 4373 PLATEL Christophe
  • 1571 03:08:25 5470 ILLAN Mario
  • 1572 03:08:26 6892 TAMLYN Stephen
  • 1573 03:08:27 546 GRAPPEIN Remi
  • 1574 03:08:27 5372 GERARDIN Cedric
  • 1575 03:08:27 12271 BELIOT Ronan
  • 1576 03:08:29 3958 DUCROCQ Christophe
  • 1577 03:08:29 4498 COURTOIS Jean-Michel
  • 1578 03:08:29 12550 LE LARGE Sebastien
  • 1579 03:08:30 5990 FOURET Thomas
  • 1580 03:08:31 9322 GOVIN Jeremie
  • 1581 03:08:31 10698 ETOR Danobeitia
  • 1582 03:08:31 10799 MARITZ Freysen
  • 1583 03:08:31 11573 JOHNSON Glen
  • 1584 03:08:32 979 ROSENLUND Markus
  • 1585 03:08:32 3722 PIEPGRASS Ammon
  • 1586 03:08:34 3098 DELAFOY Christophe
  • 1587 03:08:34 3752 IBAN Iban
  • 1588 03:08:34 6306 FOUCHER Emmanuel
  • 1589 03:08:34 6558 KIRAN Suavi Noyan
  • 1590 03:08:35 3359 SANTOS Mauricio
  • 1591 03:08:35 4560 HUNTER Matthew
  • 1592 03:08:35 12464 TREHEL Stephane
  • 1593 03:08:36 5558 HOLMES Chris
  • 1594 03:08:37 5416 DRUART Emmanuel
  • 1595 03:08:38 12876 THOMAS Adrien
  • 1596 03:08:38 37966 BONA Romain
  • 1597 03:08:39 4528 ORTIZ Igor
  • 1598 03:08:40 3433 KOYAMA Shuichi
  • 1599 03:08:41 13315 NAGEL Pascal
  • 1600 03:08:41 3840 LE ROUX Guillaume
  • 1601 03:08:41 4862 DUPONT Marc
  • 1602 03:08:42 3368 GODIER Laurent
  • 1603 03:08:42 5289 LAMBIN Matthieu
  • 1604 03:08:42 6852 THOMASON Jordan
  • 1605 03:08:44 4809 GARCIA BISQUERT Alejandro
  • 1606 03:08:45 6679 BERNARD Cyril
  • 1607 03:08:45 59858 MAZUR Anna
  • 1608 03:08:46 12657 JEZEQUEL Yoann
  • 1609 03:08:47 4828 LEO Antonio
  • 1610 03:08:47 10189 PARMENTIER Christophe
  • 1611 03:08:47 11154 ZANINOTTO Etienne
  • 1612 03:08:48 4131 ESMILAIRE Frederic
  • 1613 03:08:50 12842 SAREEN Himanshu
  • 1614 03:08:51 3570 GERNIGON Didier
  • 1615 03:08:52 16604 PARIS Henri
  • 1616 03:08:53 12326 DAVIDSE Jan Willem
  • 1617 03:08:54 3881 CARVENNEC Yann
  • 1618 03:08:54 5527 SIAUVE Laurent
  • 1619 03:08:55 3353 CORE Maxime
  • 1620 03:08:56 4271 HUBERT Jean-Bernard
  • 1621 03:08:57 5540 BOISDRON Philippe
  • 1622 03:08:57 6582 BELLIARD David
  • 1623 03:08:58 5388 MIRAGLIA Alain
  • 1624 03:08:59 5453 BOCCIA Yann
  • 1625 03:09:00 946 DELORME Pascal
  • 1626 03:09:00 1019 MAGNEE Timmy
  • 1627 03:09:00 4146 CARON Alexis
  • 1628 03:09:00 12607 HULIN Rodolphe
  • 1629 03:09:00 13441 AREIAS Ricardo
  • 1630 03:09:02 9616 THOMSEN Daniel
  • 1631 03:09:03 3113 HARUN Pascal
  • 1632 03:09:04 5355 DOLEANS Didier
  • 1633 03:09:04 6680 DEMANGE Florent
  • 1634 03:09:05 16897 REIMERINK Rene
  • 1635 03:09:05 20898 CHAUMET Samuel
  • 1636 03:09:07 735 ENJALBERT Nicolas
  • 1637 03:09:08 3537 TRISTANI Hugo
  • 1638 03:09:08 6187 CINGET Alexandre
  • 1639 03:09:09 950 PERNET Brian
  • 1640 03:09:09 13481 DUTHILLEUL Dimitri
  • 1641 03:09:10 5014 MELLACE Luca
  • 1642 03:09:10 6526 VANICATTE Maximilien
  • 1643 03:09:10 38789 CARPENTIER Anne
  • 1644 03:09:12 831 FOISSY Johnny
  • 1645 03:09:12 5124 XAVIER Naiara
  • 1646 03:09:14 3372 DEHAUDT Mathias
  • 1647 03:09:15 19495 POIROT Thomas
  • 1648 03:09:16 11925 BOUILLARD Benoit
  • 1649 03:09:17 6832 GAUTIER Jean-Bernard
  • 1650 03:09:18 4897 NORMAND Fabrice
  • 1651 03:09:18 6641 SIMON Nelson
  • 1652 03:09:18 12077 FAYE Abdoulaye
  • 1653 03:09:16 763 GARNIER Romain
  • 1654 03:09:19 11400 CHAILLOUX Guillaume
  • 1655 03:09:20 3785 DOLBEAU Jean-Baptiste
  • 1656 03:09:21 4904 SYSTERMANS Brenton
  • 1657 03:09:21 10124 GARZON CONTRERAS Jose
  • 1658 03:09:21 12257 CARLO Johan
  • 1659 03:09:21 13515 CUENOT Eric
  • 1660 03:09:22 537 CHICHE Alain
  • 1661 03:09:22 5073 DE SCHOUWER Nicolas
  • 1662 03:09:22 6169 FREZZA Cyril
  • 1663 03:09:24 5954 HARDOY Pierre
  • 1664 03:09:24 6269 EICHLER Simon
  • 1665 03:09:25 11017 ERROTABEREA Gilles
  • 1666 03:09:25 13502 MOALIC Bruno
  • 1667 03:09:26 10504 BRAUN Nicolas
  • 1668 03:09:27 12777 MACKULA Alex
  • 1669 03:09:27 32668 DEPTA Krzysztof
  • 1670 03:09:29 863 FINEL Remi
  • 1671 03:09:29 3702 OUADIL Hassan
  • 1672 03:09:29 12611 BULLET Julien
  • 1673 03:09:31 821 DODE Nicolas
  • 1674 03:09:31 10436 KELLY Courtney
  • 1675 03:09:31 13596 LHERMITTE Stefan
  • 1676 03:09:33 10007 BASTARDIE Olivier
  • 1677 03:09:34 4041 SYNOFZIK Matthis
  • 1678 03:09:34 4835 BOUDET Reynald
  • 1679 03:09:34 4987 JILEK Petr
  • 1680 03:09:35 5320 DEVAUX Valentin
  • 1681 03:09:35 5690 KOLB Arnaud
  • 1682 03:09:36 11495 LAFON Jonathan
  • 1683 03:09:36 21006 SADZOUTE Jean-Richard
  • 1684 03:09:37 3898 ROUX Frederic
  • 1685 03:09:38 3214 BEGLEY Paul
  • 1686 03:09:38 4418 DELONS Brice
  • 1687 03:09:38 16492 SCARPA Aurelien
  • 1688 03:09:39 4615 ALBERIOLI Alessandro
  • 1689 03:09:39 13340 OSBORNE Paul
  • 1690 03:09:39 31854 COURONNE Guillaume
  • 1691 03:09:40 3037 INFORTUGNO Marco
  • 1692 03:09:40 3689 LE MEHAUTE Thierry
  • 1693 03:09:40 3903 GAUDET Alexis
  • 1694 03:09:41 20054 OLERON Olivier
  • 1695 03:09:42 12492 BESSON Lionel
  • 1696 03:09:43 948 MOUFFOK Samir
  • 1697 03:09:43 3710 STEVENS Martin
  • 1698 03:09:43 10965 CHAUVIN Samuel
  • 1699 03:09:44 792 MOUSTAID Ibrahim
  • 1700 03:09:44 4362 RALEIGH Jared
  • 1701 03:09:44 13547 PESQUET Christophe
  • 1702 03:09:44 16744 DUONG HUYNH Giao
  • 1703 03:09:45 9380 SIMPSON David
  • 1704 03:09:48 4238 SAUNEUF Philippe
  • 1705 03:09:48 5101 LAUNAY Maxence
  • 1706 03:09:50 11314 LE PAIH Jean-Christophe
  • 1707 03:09:52 5216 REUBI Ripon
  • 1708 03:09:53 4343 BIRIZ Ufuk
  • 1709 03:09:53 6377 ABOLIN Patrice
  • 1710 03:09:54 4837 PERROT Xavier
  • 1711 03:09:54 11900 VERY Franck
  • 1712 03:09:54 33873 GRICOURT Jonathan
  • 1713 03:09:55 3019 HONORIO Francois
  • 1714 03:09:55 5625 DEJEAN Thierry
  • 1715 03:09:55 6414 VERMEIL Cedric
  • 1716 03:09:56 10924 LIOTARD Guillaume
  • 1717 03:09:57 6173 SCHITTECATTE Philippe
  • 1718 03:09:58 723 PHILIPPON Vincent
  • 1719 03:09:58 3027 HAEBERLIN Julien
  • 1720 03:09:59 3675 PEYRE Christophe
  • 1721 03:09:59 12145 EL HAYANI Karim
  • 1722 03:10:00 5064 ARNAL Ludovic
  • 1723 03:10:02 4944 BALANDRAUD Thierry
  • 1724 03:10:02 21621 CARNIAUX Boris
  • 1725 03:10:03 12521 ARACTINGI Alexandre
  • 1726 03:10:03 13877 BUISSON Julien
  • 1727 03:10:04 4946 FRAISSE Guillaume
  • 1728 03:10:04 11565 RUYET Bernard
  • 1729 03:10:05 10464 PETRAS Franck
  • 1730 03:10:07 3379 LE BESNERAIS Adrien
  • 1731 03:10:07 6106 NIELSEN Mads
  • 1732 03:10:07 9330 MINY Kevin
  • 1733 03:10:09 5134 FERREIRA Joachim
  • 1734 03:10:09 5545 VAILLANT Philippe
  • 1735 03:10:09 12465 CARON Gauthier
  • 1736 03:10:10 10886 MASON David
  • 1737 03:10:10 20994 LOGEZ Eric
  • 1738 03:10:11 904 TURC Benjamin
  • 1739 03:10:11 4873 NESTOR Raphael
  • 1740 03:10:12 6022 AULNETTE Adrien
  • 1741 03:10:12 11112 SARNO Daniel
  • 1742 03:10:13 12593 CHOMETTE Philippe
  • 1743 03:10:13 21712 CABON Alban
  • 1744 03:10:14 954 PINNETERRE Vincent
  • 1745 03:10:14 5195 FRANCON Thomas
  • 1746 03:10:14 11991 ROQUART Stephane
  • 1747 03:10:14 21139 BONFILS Gaetan
  • 1748 03:10:14 24738 RENSCH Danny
  • 1749 03:10:16 5342 CALLAGHAN Owen
  • 1750 03:10:16 17809 SIRIEIX Philippe
  • 1751 03:10:19 10551 RIAUDEL Sebastien
  • 1752 03:10:20 3101 SODERO Daniel
  • 1753 03:10:20 24279 ROBERTO Pietro
  • 1754 03:10:21 3726 GERRIST Ron
  • 1755 03:10:22 5229 LATHAM Andrew
  • 1756 03:10:22 5413 TROPLENT Gilles
  • 1757 03:10:22 6136 REPPUCCI Juan
  • 1758 03:10:23 9436 _S HEEREN Paul-Henri
  • 1759 03:10:23 20671 SEIGNARD Jean-Francois
  • 1760 03:10:24 559 LOUVEAU Vincent
  • 1761 03:10:24 6156 YOUNG Phillip
  • 1762 03:10:24 12852 HEITZMANN Frederic
  • 1763 03:10:25 5354 ROBERT Jimmy
  • 1764 03:10:27 4554 O_CONNOR Marian
  • 1765 03:10:27 6822 MARTIN Yannick
  • 1766 03:10:28 3095 ARANDA Manuel
  • 1767 03:10:28 3236 BILLARD Vincent
  • 1768 03:10:28 19819 AZIMOV Sardar
  • 1769 03:10:29 9011 LAINE Olivier
  • 1770 03:10:31 4729 ALICHIKH Areski
  • 1771 03:10:31 11059 ERNST Carl
  • 1772 03:10:32 3855 RIBES GALAN Bernardo
  • 1773 03:10:32 6176 THOMAS Dominique
  • 1774 03:10:33 3678 SMAIL Frederic
  • 1775 03:10:33 13790 CROZET Christophe
  • 1776 03:10:34 9817 DUVAL Simon
  • 1777 03:10:35 6226 MYTROSHYN Oleksandr
  • 1778 03:10:35 10346 ANTONIO Cantero Quesada
  • 1779 03:10:35 12084 SACAZES Steve
  • 1780 03:10:36 968 LANEEUW Jeremy
  • 1781 03:10:36 6583 JULLIAN Sebastien
  • 1782 03:10:37 3523 PETRUT Alex Cosmin
  • 1783 03:10:39 4356 DAVE Cudby
  • 1784 03:10:39 6111 ROBINSON Paul
  • 1785 03:10:40 3926 PESEK Jiri
  • 1786 03:10:41 4374 ROY Antoine
  • 1787 03:10:41 10906 TOUCHARD Alexis
  • 1788 03:10:41 13280 MOLTINI Cedric
  • 1789 03:10:42 688 GARNIER Michel
  • 1790 03:10:42 4301 BAYLY Arturo
  • 1791 03:10:42 4524 WENDY Chapman
  • 1792 03:10:42 9778 CARTER Simon
  • 1793 03:10:42 12645 MOTEKALEMI Yashar
  • 1794 03:10:43 5410 SEBILLE Philippe
  • 1795 03:10:43 13759 GURNEY John
  • 1796 03:10:44 3522 LE TORTOREC Xavier
  • 1797 03:10:45 5998 HAJJI Abdellah
  • 1798 03:10:45 12771 LAROUELLE Frederic
  • 1799 03:10:46 6180 JOCQUEL Sylvain
  • 1800 03:10:46 6762 PRAX Guilhem
  • 1801 03:10:47 24169 LEBONNOIS Damien
  • 1802 03:10:49 13233 SUHR Christian
  • 1803 03:10:50 6474 POURREAU Boris
  • 1804 03:10:52 3316 LEBRUN Julien
  • 1805 03:10:52 10625 PIAT David
  • 1806 03:10:53 4482 DUPUY Sylvain
  • 1807 03:10:53 5506 BOUVAT Olivier
  • 1808 03:10:54 804 LE CLECH Romain
  • 1809 03:10:54 3122 NEU Gilles
  • 1810 03:10:56 3945 MAYORGA JIMENEZ Francisco
  • 1811 03:10:56 6247 SOMMER Thomas
  • 1812 03:10:56 24759 VANDEN BUSSCHE Eric
  • 1813 03:10:57 3991 BLOQUET Stanislas
  • 1814 03:10:57 4257 POUS LLEDO Ricardo
  • 1815 03:10:57 9115 MILLIANCOURT Eric
  • 1816 03:10:57 17625 RETEGUI TELLECHEA Luis Maria
  • 1817 03:10:58 11038 BELL David
  • 1818 03:10:59 3899 THAK Alexandre
  • 1819 03:10:59 9318 CASTAGNET Florence
  • 1820 03:10:59 11282 SERRAT Frederic
  • 1821 03:11:00 5978 BROGNAUX Laurent
  • 1822 03:11:01 4161 GASECKI Tomasz
  • 1823 03:11:01 4751 CABARDOS Gilles
  • 1824 03:11:02 3329 HIBON Nicolas
  • 1825 03:11:02 12243 KIRKLAND Michael
  • 1826 03:11:04 5871 LOGAN Ian
  • 1827 03:11:04 10341 BOSQUET Antoine
  • 1828 03:11:05 12202 BURBAUD Antonin
  • 1829 03:11:06 5777 FOSSATI David
  • 1830 03:11:06 12118 HADFIELD Alastair
  • 1831 03:11:07 6717 AUKMANIS Nauris
  • 1832 03:11:09 10456 KIBBLEWHITE Stephen
  • 1833 03:11:10 4329 ANGEL Jimenez Barrera
  • 1834 03:11:11 5153 LEMMEL Thierry
  • 1835 03:11:11 6773 ORTS JIMENEZ Gregorio
  • 1836 03:11:14 6388 CAMPO Ricardo
  • 1837 03:11:15 21168 KUNZ Sarah
  • 1838 03:11:15 22281 HAGLON Lilian
  • 1839 03:11:16 4426 ROY Remy
  • 1840 03:11:18 1001 TERA CASADO Eduardo
  • 1841 03:11:18 5551 RAULT Benoit
  • 1842 03:11:18 5957 BOUTROT Patrice
  • 1843 03:11:18 5960 BUREAU Baptiste
  • 1844 03:11:18 10403 LEWANDOWSKA Sven
  • 1845 03:11:19 6256 BIRD Peter
  • 1846 03:11:19 6517 COTE Vincent
  • 1847 03:11:19 23033 FIELD Andy
  • 1848 03:11:19 31946 PETERS-DESTERACT Hippolyte
  • 1849 03:11:20 3488 KOVACS Stephen
  • 1850 03:11:20 3495 DOS SANTOS Lionel
  • 1851 03:11:20 23230 MARTIN BORREGUERO Francisco
  • 1852 03:11:21 808 COLAS Pierre
  • 1853 03:11:21 6624 BRIERLEY Richard
  • 1854 03:11:21 12091 GOHIN Ludwig
  • 1855 03:11:21 25322 TAPIRO Ronen
  • 1856 03:11:23 3540 FARRER Guilherme
  • 1857 03:11:23 6497 STEINMETZ Luc
  • 1858 03:11:23 13145 SØBY Ole
  • 1859 03:11:24 4816 FRANCOIS Dibetta
  • 1860 03:11:23 6518 WENDT Alex
  • 1861 03:11:25 9067 ANDRY Franck
  • 1862 03:11:27 13173 TAIT Steve
  • 1863 03:11:28 9366 SALIGHINI Christian
  • 1864 03:11:29 6084 LUTSKIY Konstantin
  • 1865 03:11:29 12871 BOURDON Olivier
  • 1866 03:11:30 12404 SAID Djamal
  • 1867 03:11:30 39199 LOPEZ FERNANDEZ Armando
  • 1868 03:11:31 3599 IKRAM Jamel
  • 1869 03:11:31 4543 THOMSON Angus
  • 1870 03:11:31 5144 GURY Julien
  • 1871 03:11:31 17021 LINDBERG Poul
  • 1872 03:11:32 3052 VERZAUX Charles
  • 1873 03:11:32 3390 BRUNETEAU Christophe
  • 1874 03:11:33 3800 DEWAELE Tom
  • 1875 03:11:33 5911 LE GALL Julien
  • 1876 03:11:35 6200 SASSAU Daniel
  • 1877 03:11:37 3549 DOISNEAU Julien
  • 1878 03:11:37 13222 CADY Anthony
  • 1879 03:11:37 19402 ACHIM Schauerte
  • 1880 03:11:38 6610 POIRIER Jean-Marc
  • 1881 03:11:38 13752 HALLOUIN David
  • 1882 03:11:39 4022 MARIE-ANTOINE Christophe
  • 1883 03:11:40 4149 PETITJEAN Thierry
  • 1884 03:11:41 4077 PONS Jean Christian
  • 1885 03:11:44 11975 DAPRA Frederic
  • 1886 03:11:45 4745 BONNISSEAU Eric
  • 1887 03:11:45 6235 BESSON Thomas
  • 1888 03:11:45 20502 CABRERA Xavi
  • 1889 03:11:46 665 PROTAIS David
  • 1890 03:11:46 6026 SOLNORDAL Vegar
  • 1891 03:11:46 6309 HITZBERGER Marcus
  • 1892 03:11:46 11632 JONSSON Fredrik
  • 1893 03:11:46 20004 GROETKER Thorsten
  • 1894 03:11:46 37338 CLAUDIA ADELA Rusu
  • 1895 03:11:47 3628 CHRISTOPHE Dormenval
  • 1896 03:11:47 5368 PIBOT Gwendal
  • 1897 03:11:47 65071 HONDA Michiyo
  • 1898 03:11:48 6880 GILLIER Laurent
  • 1899 03:11:48 10443 BLATIERE Patrice
  • 1900 03:11:50 11878 MORDAS Claudia
  • 1901 03:11:50 19176 KINDOU Franck
  • 1902 03:11:51 5638 CAUSSE Mickael
  • 1903 03:11:51 6225 OJEDA Oscar
  • 1904 03:11:53 1047 VERCHERE Raphael
  • 1905 03:11:54 994 GODET Sebastien
  • 1906 03:11:55 529 IKHOU Amirouche
  • 1907 03:11:55 3025 DU PAYRAT Jean
  • 1908 03:11:55 6011 GINDRE Ludovic
  • 1909 03:11:55 13101 MOQUET Stephane
  • 1910 03:11:55 13490 ORDOQUI GARCIA Jesus
  • 1911 03:11:56 5642 DESLOGES Gregoire
  • 1912 03:11:56 5775 ISHINO Masashi
  • 1913 03:11:56 11827 ROULLE Philippe
  • 1914 03:11:57 4347 RAUDVERE Kaido
  • 1915 03:11:57 6385 MARTINS Silvestre
  • 1916 03:11:58 3590 LONGUET Patrick
  • 1917 03:11:58 4700 ROY Jean-Francois
  • 1918 03:12:00 6092 DAVIDE Lantermino
  • 1919 03:12:01 13920 COMBE Jeremy
  • 1920 03:12:02 9553 KRIM Said
  • 1921 03:12:02 13949 BIGARRE Emmanuel
  • 1922 03:12:03 9522 HERRTAGE Toby
  • 1923 03:12:03 19228 LUCY Rankin
  • 1924 03:12:04 10555 ROY Julien
  • 1925 03:12:05 4056 BIANCHI Benjamin
  • 1926 03:12:05 13942 PETITFRERE Martin
  • 1927 03:12:05 19231 GIRAUDON Marc
  • 1928 03:12:06 12698 REGNIE Benoit
  • 1929 03:12:07 4084 MITH Jean-Marie
  • 1930 03:12:07 6368 GUESNERIE Mickael
  • 1931 03:12:07 19213 GEORGES Julien
  • 1932 03:12:08 13932 HURFORD Robert
  • 1933 03:12:08 19893 MACCARI Marc
  • 1934 03:12:08 22678 NIMES RUFO Francisco
  • 1935 03:12:08 43028 GOLFIER Antoine
  • 1936 03:12:09 4195 KOKK Kart
  • 1937 03:12:09 5390 PARUIT Aymeric
  • 1938 03:12:09 13878 SEGUIN Pascal
  • 1939 03:12:10 17016 FRAICHE Bernard
  • 1940 03:12:10 30096 PAILLIE Benoit
  • 1941 03:12:11 4556 MARTINEAU Kim
  • 1942 03:12:11 4653 VISENTIN Thierry
  • 1943 03:12:11 6607 AMOSSE Yannick
  • 1944 03:12:12 6449 BERGAMO Christophe
  • 1945 03:12:12 9909 BARBERO TORRES Pablo
  • 1946 03:12:13 4111 PRUGNE Jerome
  • 1947 03:12:13 4345 HARDIN Joseph
  • 1948 03:12:14 3573 LAMBOURN Ian
  • 1949 03:12:14 6439 DUPRE Guillaume
  • 1950 03:12:14 6548 PEREZ FELEZ Alicia
  • 1951 03:12:14 9908 GILLET Vincent
  • 1952 03:12:14 10070 DE MAGALHAES Paulo
  • 1953 03:12:14 19236 POIREL Alicia
  • 1954 03:12:15 12255 JARAMILLO Adriana
  • 1955 03:12:15 13246 DJEFFAL Aziz
  • 1956 03:12:16 4755 BAZE Kamel
  • 1957 03:12:16 20448 LANHER Alexandre
  • 1958 03:12:17 4001 GRACE Jane
  • 1959 03:12:17 4220 CAROLA Laurent
  • 1960 03:12:17 4675 GOULAIS Johann
  • 1961 03:12:17 9822 TELEPUN Martin
  • 1962 03:12:17 12643 MARTINEZ SANCHEZ Marcos
  • 1963 03:12:18 5712 JULIAN Varon
  • 1964 03:12:18 6754 BOURDU Gregoire
  • 1965 03:12:18 11245 QUIGLEY Darren
  • 1966 03:12:18 12784 GALVAN Antoine
  • 1967 03:12:19 4956 ROUSSEAU Herve
  • 1968 03:12:19 12110 HUIN Tristan
  • 1969 03:12:19 13696 VIGNERON Cyril
  • 1970 03:12:20 3803 SCHEIP Thomas
  • 1971 03:12:20 4398 CONUS Aurelien
  • 1972 03:12:20 5485 GAUTHIER Pascal
  • 1973 03:12:21 9437 BOGATYREV Vladimir
  • 1974 03:12:21 9896 TILLAUT Richard
  • 1975 03:12:23 9495 JUCHET Davy
  • 1976 03:12:23 50309 TREMBLIN Anthony
  • 1977 03:12:24 59144 WRUTNIAK Philippe
  • 1978 03:12:25 4182 CHENEVOTOT Marc
  • 1979 03:12:25 4403 VINCENT Sebastien
  • 1980 03:12:25 5359 ELOY Gregoire
  • 1981 03:12:25 5886 APPERT Raphael
  • 1982 03:12:25 11118 PROT Alexandre
  • 1983 03:12:25 12065 RE Maurice
  • 1984 03:12:25 12979 ARNOLD Joerg
  • 1985 03:12:25 23513 BEAVITT Nicholas
  • 1986 03:12:26 9372 ALVAREZ Daniel
  • 1987 03:12:26 19091 ISABLEU Herve
  • 1988 03:12:27 3325 LEMASSON Gaetan
  • 1989 03:12:27 9585 HEIDEGER Mehdi
  • 1990 03:12:28 6724 RIBOURG Fabrice
  • 1991 03:12:28 13407 DUPUICH Cedric
  • 1992 03:12:28 16849 BACHELET Jean Pierre
  • 1993 03:12:28 24550 GRAS Gregory
  • 1994 03:12:29 5549 GIBIER Jean-Francois
  • 1995 03:12:30 13312 POLUS Philippe
  • 1996 03:12:30 18367 ALLEGRE Thierry
  • 1997 03:12:31 12430 VANKIEKEN Sebastien
  • 1998 03:12:32 12029 METZGER Sebastien
  • 1999 03:12:33 24691 LEBAS Fabien
  • 2000 03:12:34 3119 ECHAITI Mohamed
  • 2001 03:12:34 5180 DUTHU Benoit
  • 2002 03:12:34 9795 DUBOURGNOUX Fabrice
  • 2003 03:12:34 13001 LOEUILLET Vincent
  • 2004 03:12:35 5419 FRONVAL Isabelle
  • 2005 03:12:32 54220 FENTON Peter
  • 2006 03:12:36 969 LACOMBE Olivier
  • 2007 03:12:37 4725 POINCHEVAL Didier
  • 2008 03:12:38 3516 MEZIERES Fabrice
  • 2009 03:12:38 11777 CORABOEUF Jean Francois
  • 2010 03:12:38 12932 ANDERSON William
  • 2011 03:12:38 13282 MING Lang
  • 2012 03:12:38 23559 BUSKILA Oren
  • 2013 03:12:39 3825 SOUBIROU Francois-Xavier
  • 2014 03:12:40 3110 SHARPE Paul
  • 2015 03:12:42 4256 FEINHAUS Dima
  • 2016 03:12:42 6461 CORMIER Renaud
  • 2017 03:12:42 9886 DESLANDES Denis
  • 2018 03:12:42 13393 AMINE Youness
  • 2019 03:12:44 3815 LEANDRO Fernandes
  • 2020 03:12:45 4102 SZALADZINSKI Sebastian
  • 2021 03:12:45 4351 GAUCHER Patrick
  • 2022 03:12:45 5816 THOMAS Barthelemy
  • 2023 03:12:45 11435 CHATELAIN Stephane
  • 2024 03:12:45 16212 RIS Christian
  • 2025 03:12:46 3006 HEBRARD Antoine
  • 2026 03:12:46 13368 BERCIC Zoran
  • 2027 03:12:47 6591 STRACK Sascha
  • 2028 03:12:48 5398 BRUNET Yannick
  • 2029 03:12:48 5575 GALINDO Christophe
  • 2030 03:12:48 11588 MAZUEL Gregoire
  • 2031 03:12:48 12854 FECTEAU Samantha
  • 2032 03:12:48 13662 BOUADLA Karim
  • 2033 03:12:49 3698 GONZALEZ Steeve
  • 2034 03:12:49 3850 BAUDET Christian
  • 2035 03:12:50 4382 GUIGNOT Martin
  • 2036 03:12:51 6496 MARIE ROSE Joel
  • 2037 03:12:51 6869 PHILIPPON David
  • 2038 03:12:51 9789 SOOTS Viivi-Anne
  • 2039 03:12:51 10786 HUNT Dylan
  • 2040 03:12:51 12769 BOURDELLE Francois
  • 2041 03:12:52 6555 LOPEZ Jose Antonio
  • 2042 03:12:52 9133 LOISEAU Jean-Michel
  • 2043 03:12:52 18828 O_LEARY Gerard
  • 2044 03:12:52 37583 ELISABETH Fabrice
  • 2045 03:12:53 12159 MALET Jean Noel
  • 2046 03:12:54 6721 COLLIN Stephane
  • 2047 03:12:54 11929 PANISSARD Yannick
  • 2048 03:12:55 5684 GASCOIN Christophe
  • 2049 03:12:55 9297 BARRAZAMA Said
  • 2050 03:12:55 12354 RAIMBAUX Franck
  • 2051 03:12:56 4712 ETOURNEUX Raphael
  • 2052 03:12:56 9810 QUINN Tom
  • 2053 03:12:56 20995 SOULTANY Benjamin
  • 2054 03:12:56 63201 HARVEY Lawrence
  • 2055 03:12:57 9591 ROUGEMONT Frederic
  • 2056 03:12:57 9798 SCHMALTZ Virginie
  • 2057 03:12:58 582 BRUN Jean-Pierre
  • 2058 03:12:58 4330 KARACOSTAS Antoine
  • 2059 03:12:58 6428 CHEYROUSE Sylvain
  • 2060 03:12:58 12608 RAIFF Philippe
  • 2061 03:12:59 3884 CARMAGNAT Guillaume
  • 2062 03:12:59 10239 MOREAUD Olivier
  • 2063 03:13:00 746 GULLBERG Susanne
  • 2064 03:13:01 5646 MORILLA CILLER Alberto
  • 2065 03:13:01 5860 STUTEL Nicolas
  • 2066 03:13:01 13538 SOCQUIN Vincent
  • 2067 03:13:02 4796 VANDERVALLE Fabrice
  • 2068 03:13:02 5559 FELICITE Christian
  • 2069 03:13:02 17596 WOOD Phil
  • 2070 03:13:02 18698 SCHMIDT Oliver
  • 2071 03:13:04 3955 BESNIER Raphael
  • 2072 03:13:04 10226 DELAN Michel
  • 2073 03:13:05 3922 HEBERT Cecile
  • 2074 03:13:05 9001 LAGRAVIERE Arnaud
  • 2075 03:13:06 771 GAUTHIER Pierre-Yves
  • 2076 03:13:06 10631 REULIER Laurent
  • 2077 03:13:06 13626 ABELE Amaury
  • 2078 03:13:07 3843 RIMLINGER Alexandre
  • 2079 03:13:08 3306 VOLCY Christian
  • 2080 03:13:08 5484 POWELL Jonathan
  • 2081 03:13:08 22259 HOSTRUP Martin
  • 2082 03:13:09 22043 NOURI Mandana
  • 2083 03:13:10 3033 VERSCHEURE Elodie
  • 2084 03:13:10 12606 COMBLE Stephane
  • 2085 03:13:11 3208 GUERIN Guillaume
  • 2086 03:13:11 6764 WORSLEY Thomas
  • 2087 03:13:13 5829 GRIFFITHS Mark
  • 2088 03:13:13 10293 ALILAT Olivier
  • 2089 03:13:13 11480 DIEGUEZ Mikel
  • 2090 03:13:13 13911 DANGREAU David
  • 2091 03:13:14 3892 PICARD Martin
  • 2092 03:13:14 73329 ISTOMIN Yury
  • 2093 03:13:15 9147 QUIGNARD Francois
  • 2094 03:13:16 4059 CORMIER Gilles
  • 2095 03:13:16 12122 BOILEAU John
  • 2096 03:13:16 24479 VILLIEN Christophe
  • 2097 03:13:17 3133 JOUANNE Jean-Philippe
  • 2098 03:13:17 5626 PELTIER Germain
  • 2099 03:13:17 5790 PEIGNET Nicolas
  • 2100 03:13:17 12236 LEPREUX Christophe
  • 2101 03:13:18 1048 AMBLAT Jean-Pascal
  • 2102 03:13:18 3479 DIJOUX Dominique
  • 2103 03:13:18 5659 HAMPEL Christoph
  • 2104 03:13:20 3117 ECUYER Nicolas
  • 2105 03:13:20 4893 MANUEL Philippe
  • 2106 03:13:20 6066 DURAND Frederick
  • 2107 03:13:21 9083 RODRIGUES Michel
  • 2108 03:13:22 11601 PADILLA GARCIA Manuel
  • 2109 03:13:23 6117 PATRAKOV Nikolay
  • 2110 03:13:24 6357 HOLSLAG Irmo
  • 2111 03:13:24 13451 LANTZ Eric
  • 2112 03:13:24 22347 BENBEKHTI Mustapha
  • 2113 03:13:25 3167 GODBILLE Frederic
  • 2114 03:13:25 22308 VENTRE Raphael
  • 2115 03:13:25 29597 DOR Ron
  • 2116 03:13:26 3164 DOWNWARD Steven
  • 2117 03:13:26 4162 CHERY Sebastien
  • 2118 03:13:26 6601 BENZEMRA Rachid
  • 2119 03:13:26 12984 BOULESTEIX Brice
  • 2120 03:13:27 4110 RODET Nicolas
  • 2121 03:13:27 5081 MEKHALDI Ryad
  • 2122 03:13:28 3978 LEBLANC Mathias
  • 2123 03:13:28 13131 RICE Kevin
  • 2124 03:13:29 726 MARCH Chris
  • 2125 03:13:29 4485 HOWARD HØIRUP Rasmus
  • 2126 03:13:29 9549 AMARIR El Hanafi
  • 2127 03:13:30 4674 CRISCIONE Paolo
  • 2128 03:13:31 4260 LAPIERRE Stephane
  • 2129 03:13:31 5084 COEFF Jean Claude
  • 2130 03:13:31 10903 LEROUX David
  • 2131 03:13:30 13983 GOUPIL Pierre
  • 2132 03:13:32 9774 MIDDLEBROOK Alan
  • 2133 03:13:32 13966 FARMAN Christopher
  • 2134 03:13:33 13244 CICCOTTI Giuseppe
  • 2135 03:13:34 10000 CANE Marc
  • 2136 03:13:34 11590 ABRUNHOSA Rafael
  • 2137 03:13:34 11989 CLERE Mathieu
  • 2138 03:13:34 13249 DIEUDONNE Stephane
  • 2139 03:13:35 3364 LE ROUX Yann
  • 2140 03:13:35 10576 CHATELAS Julien
  • 2141 03:13:35 12220 MARGERIE Robert
  • 2142 03:13:36 9956 LORNIE Richard
  • 2143 03:13:36 10012 COMBEBIAS Jean-Brice
  • 2144 03:13:36 21431 JEROME Henry
  • 2145 03:13:37 44206 LESAGE Chritophe
  • 2146 03:13:38 5730 MARCO Ugolini
  • 2147 03:13:38 5975 KALININS Peteris
  • 2148 03:13:39 5840 NEEL Jean-Baptiste
  • 2149 03:13:39 5908 FORS Johannes
  • 2150 03:13:40 10194 HOYDEM Michael
  • 2151 03:13:40 12023 MIGEOT Ludovic
  • 2152 03:13:41 6436 VAN DER VELDEN Joost
  • 2153 03:13:41 9281 GOUDJO Athaa
  • 2154 03:13:41 9516 TOULOUZE David
  • 2155 03:13:41 10488 REMOND Frederic
  • 2156 03:13:42 947 BOUYER Fabien
  • 2157 03:13:42 5224 LE BOURHIS Fabien
  • 2158 03:13:42 6224 VEROLIN Herve
  • 2159 03:13:42 9762 SILVESTRI Francois
  • 2160 03:13:42 11940 DEGOBERT Guillaume
  • 2161 03:13:42 20528 BERTRAND Franck
  • 2162 03:13:43 4616 LE GOFF Cyril
  • 2163 03:13:43 5082 KAVANAGH Michael
  • 2164 03:13:43 6509 FLAUX Philippe
  • 2165 03:13:44 5943 ROBLIN Antoine
  • 2166 03:13:44 12824 HELARY Thomas
  • 2167 03:13:45 6326 BLANC Alexis
  • 2168 03:13:45 13437 NADAUD Frederic
  • 2169 03:13:46 6554 RUBIO Agustin
  • 2170 03:13:46 12105 GUILLOU Yves
  • 2171 03:13:47 6716 INO Yohei
  • 2172 03:13:47 12026 BESNARD Florian
  • 2173 03:13:49 662 Personne Gregory
  • 2174 03:13:49 11497 HERNANDEZ ALVAREZ Sergio
  • 2175 03:13:49 13486 SANTOS Rodrigo
  • 2176 03:13:49 17173 DECHNIK Pierre
  • 2177 03:13:50 1050 ISIDRO LLOBET Albert
  • 2178 03:13:50 5039 FRANQUEVILLE Jerome
  • 2179 03:13:50 5717 D_HARLINGUE Olivier
  • 2180 03:13:50 5962 VEILLON Philippe
  • 2181 03:13:50 12928 CONDE ESPINOSA Jose Antonio
  • 2182 03:13:50 21213 ILUZ David
  • 2183 03:13:51 4145 FALEMPE Antoine
  • 2184 03:13:51 5525 THOMAS Guillaume
  • 2185 03:13:52 3158 LE FLOCH Francois
  • 2186 03:13:52 5583 PEIGNE Thomas
  • 2187 03:13:53 6220 LEMOINE Vincent
  • 2188 03:13:54 3845 NIKOLOVA Maria
  • 2189 03:13:54 9462 LANNES Guillaume
  • 2190 03:13:54 11691 POLLENTIER Bjorn
  • 2191 03:13:55 6784 OLSEN Niels
  • 2192 03:13:55 11873 TOUBOULIC Yves
  • 2193 03:13:56 3985 FRADLEY William
  • 2194 03:13:56 9708 BILLAUD Jean Marie
  • 2195 03:13:56 12872 ATTAB Nordine
  • 2196 03:13:57 768 RUSSO Patrizia
  • 2197 03:13:57 3121 DAEL Michel
  • 2198 03:13:57 3808 LORMOIS Jean-Marie
  • 2199 03:13:57 6552 MOUSSET Stephane
  • 2200 03:13:57 6789 LE BOUILL Denis
  • 2201 03:13:57 12892 DEVAUX Pascal
  • 2202 03:13:58 5934 NADEZHDA Semeniuk
  • 2203 03:13:59 3384 GIRERD Germain
  • 2204 03:13:59 4419 PERON Denis
  • 2205 03:13:59 5441 ABRAHAM Robert
  • 2206 03:13:59 12018 ODDONE Gianluca
  • 2207 03:13:59 13114 LEBRISEUR Jerome
  • 2208 03:13:59 13499 VINCENT Bertrand
  • 2209 03:13:59 23076 GRASSI Guillaume
  • 2210 03:14:00 5062 POTEL Francois
  • 2211 03:14:00 5125 HOEGGER Martin
  • 2212 03:14:00 10169 MITH Gael
  • 2213 03:14:00 12253 FABRE Laurent
  • 2214 03:14:01 1016 CHEVILLARD Chantal
  • 2215 03:14:01 3467 PLASCENCIA Roberto
  • 2216 03:14:01 10844 ALLAM Agnes
  • 2217 03:14:01 12399 HERNANDEZ Alfonso
  • 2218 03:14:01 13919 NICOL Christophe
  • 2219 03:14:02 795 LANCE Nicolas
  • 2220 03:14:02 5657 MASON Michael
  • 2221 03:14:03 4003 MATHOREL Jean-Michel
  • 2222 03:14:03 9408 PAIC Pascal
  • 2223 03:14:04 6803 RIBEIRO Philippe
  • 2224 03:14:05 3975 GABRIELE Patroni
  • 2225 03:14:05 12750 SOLLE Pierre
  • 2226 03:14:06 3645 RIVET Bruno
  • 2227 03:14:06 6813 ROMIL Eddy
  • 2228 03:14:06 9859 DESLOGES Benoit
  • 2229 03:14:06 20520 WARD Seamus
  • 2230 03:14:07 9917 HASCAN Erkal
  • 2231 03:14:09 3774 BARONHEID Pascal
  • 2232 03:14:10 3421 PORCU Antonio
  • 2233 03:14:10 11329 JEAUNEAU Aurelien
  • 2234 03:14:10 11472 LAUDON Jonas
  • 2235 03:14:10 13361 RAIMONDI Filippo
  • 2236 03:14:11 9070 BRUCHON Patrick
  • 2237 03:14:12 9193 MARTEAUX Brian
  • 2238 03:14:13 16945 CROSNIER Fabrice
  • 2239 03:14:14 4711 LETITRE Bruno
  • 2240 03:14:14 4720 GRANET Pierre
  • 2241 03:14:14 11310 TAMPERE Marc
  • 2242 03:14:15 4659 RAMBUT Eric
  • 2243 03:14:15 6543 BRILLARD Sebastien
  • 2244 03:14:15 9701 RONSIN Stephane
  • 2245 03:14:15 11001 DUFERMON Bernard
  • 2246 03:14:15 23177 BOUDAUD Raphael
  • 2247 03:14:16 13564 FONTAINE Kevin
  • 2248 03:14:16 13652 GUELIN Richard
  • 2249 03:14:17 24790 MARAUD Guillaume
  • 2250 03:14:18 5707 DESCOT Patrick
  • 2251 03:14:18 6129 BOUHAIL Mickael
  • 2252 03:14:18 9776 BOUCHAOUANTE Mustapha
  • 2253 03:14:18 12746 HAQUIN Vincent
  • 2254 03:14:18 19195 BORRACCI Tommaso
  • 2255 03:14:19 17716 DESMAISON Romain
  • 2256 03:14:19 19952 ORTIZ CIDRE Guillermo Jose
  • 2257 03:14:20 4118 GOUGNOT Florent
  • 2258 03:14:20 6730 RACZYNSKI Christophe
  • 2259 03:14:20 11570 KUPCZYK Marian
  • 2260 03:14:20 11919 BENOIST Emmanuel
  • 2261 03:14:20 12797 MOREL Paul
  • 2262 03:14:21 9201 LEMASSON David
  • 2263 03:14:21 9755 ELFETOUAKI Mustapha
  • 2264 03:14:21 10105 GARANZINI Mara
  • 2265 03:14:22 12296 BERNICOT Sebastien
  • 2266 03:14:22 23894 BILLAUD Axel
  • 2267 03:14:23 4310 VISENTIN Stephane
  • 2268 03:14:23 9454 DANCE Graham
  • 2269 03:14:23 10495 CHAUVIN Maxence
  • 2270 03:14:24 3608 POULIN Remi
  • 2271 03:14:25 4595 GEVA Alon
  • 2272 03:14:25 6495 EL FATOUHI Hamid
  • 2273 03:14:25 12547 RICHARDOT Laurent
  • 2274 03:14:25 13203 VIMOND Leonard
  • 2275 03:14:26 10466 BROOKES Oliver
  • 2276 03:14:26 12329 KAPP Cristina
  • 2277 03:14:26 13298 LE DUC Emmanuel
  • 2278 03:14:27 5002 ALVARADO Andres
  • 2279 03:14:27 6615 CORTES Stephane
  • 2280 03:14:27 9487 CARBALLES Thibaut
  • 2281 03:14:28 10052 PAPOT Martin
  • 2282 03:14:28 12423 LEROSEY Yannick
  • 2283 03:14:29 11489 GLOVER Matthew
  • 2284 03:14:30 3696 SILVA Carlos
  • 2285 03:14:30 12940 FLORES Claudio Schiller Thompson
  • 2286 03:14:31 3912 CASIER Nicolas Jean
  • 2287 03:14:31 4516 GERMAIN Alain
  • 2288 03:14:31 5007 MANUELL Roy
  • 2289 03:14:31 5786 BREBION Thierry
  • 2290 03:14:31 6689 SCIPILLITI Jean-Pierre
  • 2291 03:14:32 3251 METRON David
  • 2292 03:14:32 6265 JEMMETT Thomas
  • 2293 03:14:33 3638 BLANCHARD Bertrand
  • 2294 03:14:33 10606 SIEMASZKO Wojciech
  • 2295 03:14:33 10986 RASQUIN Guillaume
  • 2296 03:14:34 12706 SEXTON Daniel
  • 2297 03:14:34 13400 BRUNEL Jean-Marc
  • 2298 03:14:35 3634 VAILLANT Laurent
  • 2299 03:14:35 3940 GRAVE Olivier
  • 2300 03:14:35 4719 POURCHER Matthieu
  • 2301 03:14:35 12449 MICHAUX Arnaud
  • 2302 03:14:35 13118 PIOTR Ob?uski
  • 2303 03:14:35 13303 LAURAS Clement
  • 2304 03:14:35 13722 THAUVIN Pierrick
  • 2305 03:14:35 16750 TRAN Minh-Toan
  • 2306 03:14:36 4842 YAN Alan
  • 2307 03:14:34 4193 HUMINSKI Marek
  • 2308 03:14:37 12491 DEDE Paul
  • 2309 03:14:37 13051 LETELLIER Frederic
  • 2310 03:14:37 13917 BEKHTI Mohamed
  • 2311 03:14:38 23032 JACQUEL Valere
  • 2312 03:14:39 20904 TUAL Olivier
  • 2313 03:14:39 23378 AISIK Katz
  • 2314 03:14:40 13552 GALRITO Clement
  • 2315 03:14:42 3266 RICHERT Jean-Pierre
  • 2316 03:14:41 3483 VIEUBLED Thomas
  • 2317 03:14:41 4235 GAUTIER Laurent
  • 2318 03:14:41 10188 DAHLMANN Alexander
  • 2319 03:14:41 19312 HEARN Dan
  • 2320 03:14:42 6804 BACHOT Vincent
  • 2321 03:14:42 13914 + Michael
  • 2322 03:14:42 24872 PHELIPPAUD Bertrand
  • 2323 03:14:44 3176 KOTKOV Dmitry
  • 2324 03:14:43 4960 DESACHY Marc
  • 2325 03:14:44 6501 DELLEMOTTE David
  • 2326 03:14:45 38880 COEUGNET Stephane
  • 2327 03:14:46 4233 BOURDAIS Patrick
  • 2328 03:14:46 13144 LEONARDO Verducci
  • 2329 03:14:46 19769 HUE Benjamin
  • 2330 03:14:47 5692 SAVEY Thibault
  • 2331 03:14:47 6237 DIAGO GONZALEZ Pablo
  • 2332 03:14:48 762 EGRON David
  • 2333 03:14:48 12728 EL ABDALLAOUI Abdelaziz
  • 2334 03:14:48 13431 LYON Francois
  • 2335 03:14:48 35006 MOSTEFAOUI Soffyane
  • 2336 03:14:47 6332 BERARD Nicolas
  • 2337 03:14:50 12150 BENNANI Jalil
  • 2338 03:14:50 12539 LEPICIER Benoit
  • 2339 03:14:50 13054 LECHAT Eric
  • 2340 03:14:50 13682 BOUGUET Laurent
  • 2341 03:14:51 10040 LAURENT Pascal
  • 2342 03:14:52 4291 MONTEIRO Rui
  • 2343 03:14:52 5974 SERRANO Maria Antonia
  • 2344 03:14:52 6544 TOMASZEWSKI Eric
  • 2345 03:14:52 9764 MILLET Eric
  • 2346 03:14:52 13011 MORTIS Chris
  • 2347 03:14:52 67372 SOLER Lucie
  • 2348 03:14:53 12953 VOISIN Jean Sebastien
  • 2349 03:14:54 5316 TSCHIRRET Philippe
  • 2350 03:14:54 6324 TERRIER Arnaud
  • 2351 03:14:54 12392 JOSE ANGEL Chavez Morales
  • 2352 03:14:54 13553 GRILLON Mathieu
  • 2353 03:14:55 5715 MERLIN Mickael
  • 2354 03:14:55 9942 BLONDEAU Christophe
  • 2355 03:14:56 864 FLEW Peter
  • 2356 03:14:56 3017 CHANU Romain
  • 2357 03:14:56 4311 HANNEY GERHARD Stoklund
  • 2358 03:14:56 9488 BOISSEAU Cyril
  • 2359 03:14:57 4020 MELUCCI Jacopo
  • 2360 03:14:59 48206 AYLING Thomas
  • 2361 03:15:00 4052 PUGGIONI Luigi
  • 2362 03:15:00 9620 SANCHEZ Eric
  • 2363 03:15:00 11745 SANDRO Jordao
  • 2364 03:15:00 12351 JACOB Boris
  • 2365 03:15:01 11159 JACKSON Peter
  • 2366 03:15:02 3423 KHABIR Karim
  • 2367 03:15:02 3758 GUERIN Nicolas
  • 2368 03:15:02 11549 JOUEN Fabrice
  • 2369 03:15:02 11999 BOITTET Patrick
  • 2370 03:15:02 12692 ANTOINE Jerome
  • 2371 03:15:02 17449 GUILLEMET Arnaud
  • 2372 03:15:04 11311 PETIOT Aurelien
  • 2373 03:15:04 13411 BENOUAHAB Gregory
  • 2374 03:15:04 16932 DESCHEPPER Bruno
  • 2375 03:15:05 17009 GAY Joelle
  • 2376 03:15:05 21758 LEOCADIE Jean Louis
  • 2377 03:15:06 3789 DAVIN Guillaume
  • 2378 03:15:06 11811 BOUAMRANE Amine
  • 2379 03:15:06 12365 MORIN Xavier
  • 2380 03:15:07 9889 RETAIL David
  • 2381 03:15:07 10271 ARTHUYS Joachim
  • 2382 03:15:09 20689 VAN BAELEN Matthias
  • 2383 03:15:10 5907 ORFAO Soraya
  • 2384 03:15:10 10657 ANNE Marie-Helene
  • 2385 03:15:10 53589 HASCOET Kevin
  • 2386 03:15:12 3131 BOYER Sebastien
  • 2387 03:15:12 4140 MINALI BELLA Jean Paul
  • 2388 03:15:12 4263 GUBLER Sebastien
  • 2389 03:15:12 10200 BANI Samy
  • 2390 03:15:12 11917 BOLLARD Vincent
  • 2391 03:15:12 24756 HUBER Charlotte
  • 2392 03:15:13 3925 DREXLER Benjamin
  • 2393 03:15:13 5599 ANGLIO Emile
  • 2394 03:15:14 4571 MARIAVALE Sebastien
  • 2395 03:15:14 5421 BARELLI Marcel
  • 2396 03:15:14 18671 TIMMERMAN Sebastien
  • 2397 03:15:15 5023 SENOUCI Nouredine
  • 2398 03:15:18 6665 LESAFFRE Jerome
  • 2399 03:15:19 9173 THIERRY Benoit
  • 2400 03:15:19 9269 TARDY Victor
  • 2401 03:15:21 3021 DROUET Jean-Charles
  • 2402 03:15:21 9570 GAUTHEY Christophe
  • 2403 03:15:21 24854 LAMBERET Gregory
  • 2404 03:15:22 9260 MAQUINGHEN Christophe
  • 2405 03:15:22 11363 TORRES Michael
  • 2406 03:15:22 12684 MARTIN David
  • 2407 03:15:22 18515 KOSINSKI Jerome
  • 2408 03:15:22 18780 COENT Erwan
  • 2409 03:15:22 20151 DAVID Mickael
  • 2410 03:15:22 20621 EIDE Helge
  • 2411 03:15:22 36129 VERDES Didier
  • 2412 03:15:23 4198 LE SACHE Loic
  • 2413 03:15:23 22511 RONDOT Loic
  • 2414 03:15:24 6776 ZAMBRANO LOPEZ Daniel
  • 2415 03:15:24 13728 DROMARD Nicolas
  • 2416 03:15:25 9177 GATIEN Christian
  • 2417 03:15:26 6030 LEDUCQ Jerome
  • 2418 03:15:26 12540 CHAUVET Stephane
  • 2419 03:15:27 6014 BLED Antoine
  • 2420 03:15:27 10838 SIMPSON Alexander
  • 2421 03:15:28 65244 BLANCHET Nelly
  • 2422 03:15:29 11029 BERGERET Damien
  • 2423 03:15:29 23574 FAGNONI Jeremy
  • 2424 03:15:30 3141 MARECHAL Christian
  • 2425 03:15:30 4658 SCHMIADE Frank
  • 2426 03:15:30 13943 LOTAUT Geoffrey
  • 2427 03:15:31 4043 SAUVE Gregoire
  • 2428 03:15:31 4440 BILLARD Yann
  • 2429 03:15:31 9579 UNNERUD Vidar
  • 2430 03:15:33 10394 VIGOUROUX Alexandre
  • 2431 03:15:35 4538 HIRST Stephen
  • 2432 03:15:35 6709 CAPITAINE James
  • 2433 03:15:36 5371 BEN SAID Samir
  • 2434 03:15:36 6847 SATTLER Matthieu
  • 2435 03:15:36 11983 CHAMPEAUD Nicolas
  • 2436 03:15:37 4667 LE TOQUEU Vincent
  • 2437 03:15:37 6831 BERNARD Daniel
  • 2438 03:15:37 13608 AUBOUR Antoine
  • 2439 03:15:38 11342 D_ERAMO Paolo
  • 2440 03:15:39 4179 B?D?O?A Artur
  • 2441 03:15:39 4843 LENTZ Jesper Avnborg
  • 2442 03:15:39 11775 COUSSEMENT Maxime
  • 2443 03:15:40 4135 PAYET Sebastien
  • 2444 03:15:40 13335 LUND Rasmus
  • 2445 03:15:41 4818 ZIELINSKI Pawel
  • 2446 03:15:41 5285 POIRIER Sebastien
  • 2447 03:15:41 9589 CHERON Anthony
  • 2448 03:15:42 5956 LEGG Darren
  • 2449 03:15:42 13243 NOCK Nicolas
  • 2450 03:15:43 13035 RIOLAND Maxime
  • 2451 03:15:45 14006 RESCH Stephen
  • 2452 03:15:45 21293 GEOFFROY Laurent
  • 2453 03:15:46 3282 SOUFFRON Franck
  • 2454 03:15:46 5267 WERNER Andreas
  • 2455 03:15:46 9137 KAPSTEIN Raynald
  • 2456 03:15:46 10705 GUINEBAULT Thierry
  • 2457 03:15:46 12599 VIALE Patrice
  • 2458 03:15:47 5835 RAINEY Brian
  • 2459 03:15:47 5915 BUDNIK James
  • 2460 03:15:47 12915 DEMARS Gregory
  • 2461 03:15:48 6799 BUESO -INCHAUSTI TORO Edgar
  • 2462 03:15:48 12078 FAVROT Romain
  • 2463 03:15:49 3616 FAUCHEHAUT Christian
  • 2464 03:15:49 5378 COUVET Thierry
  • 2465 03:15:49 11428 JOAN Ronchera Bruno
  • 2466 03:15:49 21721 REHEL Romain
  • 2467 03:15:50 4698 HERSANT Romuald
  • 2468 03:15:50 5051 GRAND Thomas
  • 2469 03:15:50 11869 FRANCOISE Vincent
  • 2470 03:15:51 13550 ESCUDERO Thierry
  • 2471 03:15:53 3234 MILLS Kate
  • 2472 03:15:53 18581 PHEULPIN Jerome
  • 2473 03:15:53 25002 LAURENT Matthieu
  • 2474 03:15:54 6457 MARTIN Johansen
  • 2475 03:15:54 18935 WINSTONE Sarah
  • 2476 03:15:56 9054 GUSTAFSSON Anton
  • 2477 03:15:56 13741 GIRE Julien
  • 2478 03:15:57 3075 MONCORGE Franck
  • 2479 03:15:57 23716 LLORENS Jean Philippe
  • 2480 03:15:57 33492 WALTENSPIEL Muriel
  • 2481 03:15:58 5239 MARTIN Sjolund
  • 2482 03:15:58 5517 PERCHERON Vincent
  • 2483 03:15:58 10805 MORVAN Bruno
  • 2484 03:16:00 4461 LEBRET Laurent
  • 2485 03:16:00 5785 PUAUD Thomas
  • 2486 03:16:00 6656 BRARD Florent
  • 2487 03:16:00 11672 CHAREF Pascal
  • 2488 03:16:00 16926 O_SHEA Steve
  • 2489 03:16:00 35324 MAZIER Nathalie
  • 2490 03:16:01 5719 LE GOC Sebastien
  • 2491 03:16:01 11984 BOYER Laurent
  • 2492 03:16:01 21585 COCHET Benoit
  • 2493 03:16:02 4927 DEFOSSEZ Vincent
  • 2494 03:16:02 10161 PATTEEUW Tom
  • 2495 03:16:03 686 TRAVERS Loic
  • 2496 03:16:03 3821 DEMAUGE-BOST Lionel
  • 2497 03:16:03 3846 DEVISMES Bruno
  • 2498 03:16:04 6128 SPENCER Jake
  • 2499 03:16:04 9008 COLBEAUX Christophe
  • 2500 03:16:04 10921 DLUBACZ Wojciech
  • 2501 03:16:06 13779 BULMAN Tim
  • 2502 03:16:07 4695 L HOTE Frederic
  • 2503 03:16:07 6556 BERGEZ Nicolas
  • 2504 03:16:09 9057 AUPHAN Christophe
  • 2505 03:16:09 18170 STARTUP Edward
  • 2506 03:16:10 11653 CHAPOUTHIER Benoit
  • 2507 03:16:10 22611 HACAULT Vincent
  • 2508 03:16:11 25397 ROTH Edouard
  • 2509 03:16:12 11414 LEROY Stephane
  • 2510 03:16:12 12810 PUYPE Ludovic
  • 2511 03:16:13 10717 DIAS Franck
  • 2512 03:16:13 17478 FOUQUEY Arnaud
  • 2513 03:16:14 4626 RIVET Jean-Francois
  • 2514 03:16:14 4911 BIRSTEIN Edwin
  • 2515 03:16:14 6095 PREGO Nicolas
  • 2516 03:16:15 5572 CANIVET Jb
  • 2517 03:16:15 6876 DE FRANCESCHI Ernesto
  • 2518 03:16:15 13746 TRAVERS Christophe
  • 2519 03:16:17 3341 HAMALIAN Shant
  • 2520 03:16:17 3533 STAMP Paul
  • 2521 03:16:17 9545 LENOIR Thibaut
  • 2522 03:16:17 19814 YVELIN Matthieu
  • 2523 03:16:18 9745 LEDERLE Alain
  • 2524 03:16:18 13286 DEBIOSSAT Jean-Noel
  • 2525 03:16:19 4055 PENNEQUIN Nicolas
  • 2526 03:16:19 5194 BOREL-GARIN Guillaume
  • 2527 03:16:19 6193 GAIRIN Come
  • 2528 03:16:19 9614 CAMANO RIVEIRO Jorge
  • 2529 03:16:19 19223 DARSIN Guillaume
  • 2530 03:16:20 10730 MICHELIN Arnaud
  • 2531 03:16:21 3879 COELHO Ernest
  • 2532 03:16:21 5784 DAURELLE Tony
  • 2533 03:16:21 13445 SERRES Vincent
  • 2534 03:16:21 53528 RAMBEAUD Fabien
  • 2535 03:16:24 3576 VARET Ludovic
  • 2536 03:16:24 4417 BRIOIX Maxime
  • 2537 03:16:24 12452 DIOGO Jose
  • 2538 03:16:25 10257 POUPARD Pierre
  • 2539 03:16:25 10701 GONZALEZ URREJOLA Patricio Alejandro
  • 2540 03:16:26 3213 BARON AGUADO Jose Antonio
  • 2541 03:16:26 3524 DEMARET Gregory
  • 2542 03:16:26 10323 RIANT Jimmy
  • 2543 03:16:26 12649 JOZSEF Keresztes-Nagy
  • 2544 03:16:26 12765 BOULAY Nicolas
  • 2545 03:16:26 13484 TAILHADES Francois
  • 2546 03:16:26 20379 PINHEIRO VIEIRA Antonio
  • 2547 03:16:27 840 SLEEGERS Kevin
  • 2548 03:16:27 3045 ELAIN Philippe
  • 2549 03:16:27 9460 GIRAUD Nicolas
  • 2550 03:16:27 11062 JACINTO Michel
  • 2551 03:16:27 12998 MONGET David
  • 2552 03:16:28 3347 REDDY Simon
  • 2553 03:16:28 13200 BOUCHAUD Adrien
  • 2554 03:16:28 25152 FEVRIER Yan
  • 2555 03:16:28 59958 WONG Kam Cheung
  • 2556 03:16:29 9106 DE GASQUET Guillaume
  • 2557 03:16:29 11823 DACEY Jay
  • 2558 03:16:30 4148 LEGARDEUR Franck
  • 2559 03:16:30 9840 LOPEZ Christopher
  • 2560 03:16:31 12470 GRANT Rebecca
  • 2561 03:16:31 22821 FERRERO Guillaume
  • 2562 03:16:32 3022 CISTERNINO Damien
  • 2563 03:16:32 6114 MAZZARA Alberto
  • 2564 03:16:32 12495 TENON Jean-Charles
  • 2565 03:16:32 16334 HUGHES Paul
  • 2566 03:16:33 13289 PETIT Laurent
  • 2567 03:16:33 38265 ROCHER Anne Lise
  • 2568 03:16:34 10954 VAREILLAUD Dominique
  • 2569 03:16:34 11643 GUILLOU Clement
  • 2570 03:16:34 12340 ENOUX Patrick
  • 2571 03:16:35 51288 ZAGAR Martina
  • 2572 03:16:36 9648 CARNET Arnaud
  • 2573 03:16:38 33700 MARQUET Julien
  • 2574 03:16:39 5997 GEERAERT Sebastiaan
  • 2575 03:16:39 9517 DRAPE Thomas
  • 2576 03:16:40 3468 LILHAMMER Kim
  • 2577 03:16:41 3460 VYPLASIL Nicolas
  • 2578 03:16:41 5389 MOREL Philippe
  • 2579 03:16:41 9801 FERNANDO Triguero
  • 2580 03:16:42 5891 LIMA DOS SANTOS Manuel
  • 2581 03:16:42 9659 GRESSIER Yoan
  • 2582 03:16:43 5977 ŠKERJANC Marko
  • 2583 03:16:43 10095 CHAVES GONZALEZ Rocio
  • 2584 03:16:44 6291 BECART Jean-Denis
  • 2585 03:16:45 10449 KAPUSCINSKI Damien
  • 2586 03:16:45 11664 PESTEL Natacha
  • 2587 03:16:46 13251 ISABELLE Anthony
  • 2588 03:16:47 4378 GUEVEL Yvan
  • 2589 03:16:47 38411 CLAISSE Maxime
  • 2590 03:16:48 10337 KANTOP Florian
  • 2591 03:07:43 420 WIRZ Martial
  • 2592 03:16:49 10170 FRODING Bjorn
  • 2593 03:16:50 11585 CHALLAL Laid
  • 2594 03:16:52 4647 JUNCHER Jørgen
  • 2595 03:16:52 9214 LECHMANN Oliver
  • 2596 03:16:53 4279 CLEMENCEAU Frederic
  • 2597 03:16:53 5667 MAUDET Christophe
  • 2598 03:16:53 36085 EASTWOOD Anne-Maree
  • 2599 03:16:54 3651 COROSINE Rodrigue
  • 2600 03:16:54 10422 GANDA Katia
  • 2601 03:16:54 10772 VALANT Franci
  • 2602 03:16:54 12434 HUBER Clement
  • 2603 03:16:55 4032 PADRIXE Pierre
  • 2604 03:16:55 10447 MARQUET Mallorie
  • 2605 03:16:55 12600 HUVENNE Mathieu
  • 2606 03:16:56 3953 RAMIREZ Adrien
  • 2607 03:16:56 5828 DONNE Juul
  • 2608 03:16:56 12197 VIDAL Armand
  • 2609 03:16:56 35244 ESSL Philipp
  • 2610 03:16:57 4687 DE SIMONE Alessia
  • 2611 03:16:57 10244 BERNARD Olivier
  • 2612 03:16:58 4996 NAIT-BOUDA Siany
  • 2613 03:17:00 6478 CHATILLON Nicolas
  • 2614 03:17:00 9946 DHENNIN Thierry
  • 2615 03:17:00 12269 LEVESQUE Jord
  • 2616 03:17:00 13111 BIRSE Duncan
  • 2617 03:17:01 3797 COUSIN Sylvie
  • 2618 03:17:01 4573 BARGELLI Gianni
  • 2619 03:17:01 11021 LE HOUX Pierre
  • 2620 03:17:01 12866 STEPHEN Gilmore
  • 2621 03:17:01 16847 ENGEL Sebastien
  • 2622 03:17:02 5597 MATOS FERNANDES Lucas
  • 2623 03:17:03 3635 GARBAYO FUENTES Francisco Javier
  • 2624 03:17:05 10939 CAVALIER Vincent
  • 2625 03:17:05 12025 PAUL Hendrix
  • 2626 03:17:05 12875 HYMERS Katherine
  • 2627 03:17:05 13495 CHAUVEAU Brice
  • 2628 03:17:06 9396 HALIN Gregory
  • 2629 03:17:06 9527 MORAT Jean-Philippe
  • 2630 03:17:06 10410 DUTERTRE Stephane
  • 2631 03:17:09 4455 WALTERS Johann
  • 2632 03:17:09 6069 OLLIVIER Jean-Christophe
  • 2633 03:17:09 11868 DIDIERJEAN Frederic
  • 2634 03:17:09 12387 GONTIER Nicolas
  • 2635 03:17:09 20192 FUZ Charles
  • 2636 03:17:10 4541 BENMELOUK Mohamed
  • 2637 03:17:07 6253 AZRARAK Belaid
  • 2638 03:17:10 9816 SILVESTRE Pablo
  • 2639 03:17:10 10181 ATLAN Yves
  • 2640 03:17:11 13391 GUILLOU Romain
  • 2641 03:17:11 20470 RIDLER Christian
  • 2642 03:17:11 32605 COURTOIS David
  • 2643 03:17:13 12176 KHELIFI Halim
  • 2644 03:17:15 3094 BONDUELLE Sebastien
  • 2645 03:17:15 4368 VOLLENWEIDER Eric
  • 2646 03:17:15 11107 VICART Kevin
  • 2647 03:17:15 11945 JAN Emmanuel
  • 2648 03:17:16 4639 LANGERON Franck
  • 2649 03:17:16 12432 ISOARDI Stefano
  • 2650 03:17:16 18784 JAHAN Marc
  • 2651 03:17:18 3888 CONTE Sebastien
  • 2652 03:17:18 21285 RIBOT Laurent
  • 2653 03:17:19 5469 AUQUIER Roland
  • 2654 03:17:19 13171 ACIERNO Marco
  • 2655 03:17:19 13750 GERARD Yann
  • 2656 03:17:19 24737 PLAUMANN Mike
  • 2657 03:17:20 3578 DE MATOS Sergio
  • 2658 03:17:21 20827 BOURHIS Alexandre
  • 2659 03:17:21 23451 SHEAHAN Declan
  • 2660 03:17:22 3345 BOISE Fabrice
  • 2661 03:17:22 6036 LEONARD Nicolas
  • 2662 03:17:22 10021 DJOUAD-GUIBERT Farid
  • 2663 03:17:22 13777 DEL SIENA Maurice
  • 2664 03:17:24 11027 KOEPPEL Stephane
  • 2665 03:17:24 22025 MEUGNIER Christophe
  • 2666 03:17:25 628 ROUBEYRIE Guillaume
  • 2667 03:17:25 6587 OUATTOU Abdelaziz
  • 2668 03:17:25 12160 KENNA Richard
  • 2669 03:17:25 29571 TROTTAIN Jerome
  • 2670 03:17:26 10787 WEBB Piers
  • 2671 03:17:26 12853 SCHULTHEISS Karen
  • 2672 03:17:26 20741 FINLAYSON Kenny
  • 2673 03:17:28 5471 LOGHMARI Fahmi
  • 2674 03:17:28 4803 JAMELOT Philippe
  • 2675 03:17:28 20154 GONNET Matthieu
  • 2676 03:17:28 34095 SUTER Wilfrid
  • 2677 03:17:29 4452 KERBAUL Emmanuel
  • 2678 03:17:29 11096 GERMAIN Eymeric
  • 2679 03:17:29 11341 BRANDT Eyal
  • 2680 03:17:29 11663 ENNASR Jamal
  • 2681 03:17:29 36100 MEPAS Romain
  • 2682 03:17:32 10182 CHARDIGNY Thomas
  • 2683 03:17:32 14009 MCNAMEE Simon
  • 2684 03:17:32 24500 LOGGIA Paolo
  • 2685 03:17:33 5996 MURPHY Jack
  • 2686 03:17:34 3882 CAUHET Cedric
  • 2687 03:17:34 9476 LEVEQUE Emmanuel
  • 2688 03:17:34 9561 CARLO Melegari
  • 2689 03:17:34 13287 COERCHON Stephane
  • 2690 03:17:35 5936 OLIVIER Dominique
  • 2691 03:17:35 13475 AMELINE Sylvain
  • 2692 03:17:35 31248 WALLEY Matthew
  • 2693 03:17:36 3895 FRANCOIS Pascal
  • 2694 03:17:36 11312 LEBOEUF Sebastien
  • 2695 03:17:37 6729 WLACHOJIANNIS Jannis
  • 2696 03:17:37 6774 SANCHEZ ANTUNA Jose Roberto
  • 2697 03:17:37 16387 SKYBERG Espen
  • 2698 03:17:38 4067 FLAVION Stephane
  • 2699 03:17:38 4857 SAADA Samuel
  • 2700 03:17:38 13997 PEREIRA Marc
  • 2701 03:17:39 4023 SEMAH Rabie
  • 2702 03:17:39 4831 ABALAIN Pierre-Yves
  • 2703 03:17:39 9735 BOUCHIRED Nicolas
  • 2704 03:17:39 9941 KOHNS Anna
  • 2705 03:17:39 10256 DOROTA Zbyszek
  • 2706 03:17:39 12936 HUGHES Jordan
  • 2707 03:17:41 10951 HODIQUE Herve
  • 2708 03:17:38 16610 GUINE MURCIA Alexandra
  • 2709 03:17:42 6537 CHOCTEAU Frederic
  • 2710 03:17:43 4786 SAEZ MARTINEZ Julian
  • 2711 03:17:43 6419 GRANDIDIER Bruno
  • 2712 03:17:43 12353 BROUSSARD Stephane
  • 2713 03:17:44 13428 ZINCENKO Andrejs
  • 2714 03:17:45 12624 LUCZYSZYN Arnaud
  • 2715 03:17:45 24420 DAVILA GARRIDO Pedro Angel
  • 2716 03:17:43 3615 ROPPONEN Matti
  • 2717 03:17:46 11768 BOCQUET Christophe
  • 2718 03:17:47 10597 DAVID Romain
  • 2719 03:17:47 17524 LAMER Kevin
  • 2720 03:17:49 3092 LACROUTS Yohan
  • 2721 03:17:49 3209 MICHAUT Dominique
  • 2722 03:17:49 5422 PARRY Stephane
  • 2723 03:17:49 6824 LESSENT Hugo
  • 2724 03:17:49 10215 GENEIX Robert
  • 2725 03:17:49 13709 AUFFRET Arnaud
  • 2726 03:17:50 5501 HARVEY Alex
  • 2727 03:17:50 9123 JOLLIET Francois
  • 2728 03:17:50 11847 CALAS Simon
  • 2729 03:17:51 10863 ISIBERT Eric
  • 2730 03:17:51 10966 LEFEBVRE Charles
  • 2731 03:17:51 13543 ROUSSELLE Nicolas
  • 2732 03:17:52 20889 GOEMAERE Laurens
  • 2733 03:17:53 12218 PHOJO Kevin
  • 2734 03:17:55 6272 BADDA Omar
  • 2735 03:17:55 6381 LEROY Loic
  • 2736 03:17:55 12770 VAN WYNSBERGHE Theo
  • 2737 03:17:56 3983 JASENSKY Oldrich
  • 2738 03:17:56 4090 CAVENAGHI Giuseppe
  • 2739 03:17:56 4614 HOBERG Torben
  • 2740 03:17:56 23655 BORDON Jean Pierre
  • 2741 03:17:57 5862 DERPION Ludovic
  • 2742 03:17:57 32259 TSEMBELIS Maritina
  • 2743 03:17:58 6097 PAYEN Jeremie
  • 2744 03:17:58 6242 MAURO Rea
  • 2745 03:17:58 10150 GARAYT Fabrice
  • 2746 03:17:59 3877 DELNATTE Cedric
  • 2747 03:17:59 4566 BARCELLA Michele
  • 2748 03:17:59 13822 FURON Olivier
  • 2749 03:17:59 16995 CASSIDY Shaunagh
  • 2750 03:18:00 6397 LE CALVEZ Fabrice
  • 2751 03:18:00 24766 KEREN Alik
  • 2752 03:18:00 32039 DROUIN Laurent
  • 2753 03:18:01 4296 JUAN CARLOS Camporro Del Corro
  • 2754 03:18:02 6621 ROSE Jean-Christophe
  • 2755 03:18:03 13951 TROCHON Jean-Marc
  • 2756 03:18:04 3120 SHU Romaric
  • 2757 03:18:04 3700 WESTERDUIJN Bob
  • 2758 03:18:04 4273 GOBE Laurent
  • 2759 03:18:04 4693 AVRIL Jean-Marie
  • 2760 03:18:04 9044 SEVERIN Emmanuel
  • 2761 03:18:04 10191 MORAWSKA Bozena
  • 2762 03:18:04 10861 LINTUNEN Petteri
  • 2763 03:18:05 5437 MILHAU Didier
  • 2764 03:18:06 4648 MORINIERE Noel
  • 2765 03:18:06 4959 GRIFFON Olivier
  • 2766 03:18:06 9622 PASQUER Lionel
  • 2767 03:18:06 13149 PONTI Alessandro
  • 2768 03:18:06 29507 FONSECA Bruno
  • 2769 03:18:07 6863 CRUTCHLEY Jonathan
  • 2770 03:18:07 12060 LEMEUNIER Vincent
  • 2771 03:18:08 4817 CHARTIER Jimmy
  • 2772 03:18:08 11292 ZASTROW Kai Frederik
  • 2773 03:18:08 20732 GODRICH Alistair
  • 2774 03:18:09 3395 DRUESNES Bruno
  • 2775 03:18:09 12469 BREDIN Swann
  • 2776 03:18:09 19804 MAUROUARD Sebastien
  • 2777 03:18:10 19395 CORNEA Jonathan
  • 2778 03:18:11 13420 MCKEAN Joeleen
  • 2779 03:18:12 5472 JIMENEZ Alan
  • 2780 03:18:12 5970 LAGNEAUX Sebastien
  • 2781 03:18:13 3914 MERCIER Denis
  • 2782 03:18:13 11468 PONS Jeremy
  • 2783 03:18:13 12021 NEYROLLES Philippe
  • 2784 03:18:14 4073 GROENINCK Philipppe
  • 2785 03:18:14 21913 PARAGE Frederic
  • 2786 03:18:15 6215 POTEZ Adrian
  • 2787 03:18:15 6261 ILARIO Simonetta
  • 2788 03:18:15 17474 FILLON Nicolas
  • 2789 03:18:16 13000 BROSSEAU Fabrice
  • 2790 03:18:17 4964 HERRIQUET Gilles
  • 2791 03:18:17 11749 BACONNET Nicolas
  • 2792 03:18:17 12703 GUILLEN Mathieu
  • 2793 03:18:18 4203 DUPLANT Thierry
  • 2794 03:18:18 6299 MAGINLEY Errol
  • 2795 03:18:18 13646 GARCIA Thomas
  • 2796 03:18:18 20037 HOLLOWAY Thomas
  • 2797 03:18:19 4255 PLANET Kevin
  • 2798 03:18:19 6298 MADDOCKS Jenny
  • 2799 03:18:19 29274 LEGRAND Gauthier
  • 2800 03:18:20 16106 GRABNER Johann
  • 2801 03:18:21 622 DECORNOY Narcisse
  • 2802 03:18:21 19357 SALLENAVE Xavier
  • 2803 03:18:21 20052 CHAMPION Dominique
  • 2804 03:18:22 4513 SPAYNE Dominic
  • 2805 03:18:22 12244 WERZ Wolfgang
  • 2806 03:18:22 51509 CAULLIEZ Gregoire
  • 2807 03:18:23 5206 DERMAN Mert
  • 2808 03:18:23 6567 ABRAHAM Christophe
  • 2809 03:18:23 10852 BICNAU Emmanuel
  • 2810 03:18:23 13616 DORP VAN Andre
  • 2811 03:18:23 13769 GROLLEAU Jean-Yves
  • 2812 03:18:23 19465 JANUS Guillaume
  • 2813 03:18:24 6080 LEBORGNE Cyrille
  • 2814 03:18:24 10503 WOLF Fabrice
  • 2815 03:18:24 11598 BEAUMARD Arnaud
  • 2816 03:18:25 3496 JOHNSTON Peter
  • 2817 03:18:26 4506 FREMONT William
  • 2818 03:18:26 4921 MASSOT Jerome
  • 2819 03:18:26 5196 SAVY Cedric
  • 2820 03:18:26 6479 BAUDUCEAU GRANET Nathalie
  • 2821 03:18:27 4349 CARRARO Filippo
  • 2822 03:18:27 11467 KAPP Gil
  • 2823 03:18:27 11906 DADEJ Maksymilian
  • 2824 03:18:27 20601 CHOPARD Herve
  • 2825 03:18:30 3091 GUENGANT Yves
  • 2826 03:18:30 6267 ?AMBAL Peter
  • 2827 03:18:31 3286 DECRU Corinne
  • 2828 03:18:31 9021 MOINY Nicolas
  • 2829 03:18:32 4746 LORBITZKI Kai
  • 2830 03:18:32 6002 BISSIONI Andrea
  • 2831 03:18:32 10739 DOBELI Jean Francois
  • 2832 03:18:32 11561 BURTE Emmanuel
  • 2833 03:18:33 5631 MAGNE Jean-Francois
  • 2834 03:18:33 6524 CARTIGNY Remi
  • 2835 03:18:33 12841 BIDGRAIN Sonia
  • 2836 03:18:33 13605 GRATON Maxime
  • 2837 03:18:33 57330 LAUK Carole
  • 2838 03:18:34 12261 LE GRELLE Bruno
  • 2839 03:18:34 12424 BUNEL Wilfried
  • 2840 03:18:34 13632 BELLOCQ Lucas
  • 2841 03:18:34 24666 BOISSEAU Frederic Noel
  • 2842 03:18:35 6530 ANTSON Franck
  • 2843 03:18:35 13787 PAYELLEVILLE Maxime
  • 2844 03:18:36 3642 CASTRO Alexandre
  • 2845 03:18:36 4972 ESKINAZI Bernard
  • 2846 03:18:36 12751 CUGGIA Bruno
  • 2847 03:18:36 13956 ROSSIER Roger
  • 2848 03:18:38 5478 LAGEAT Alexander
  • 2849 03:18:38 10081 PASQUARELLI Gregory
  • 2850 03:18:39 3380 VALADIER Ludovic
  • 2851 03:18:39 11443 PERRIN Stephane
  • 2852 03:18:39 20792 ALAN Kelly
  • 2853 03:18:40 6608 VALERO Anne
  • 2854 03:18:41 5838 DOLZ Stephane
  • 2855 03:18:43 5610 BOYER Guillaume
  • 2856 03:18:43 9837 HAYCRAFT Barnabe
  • 2857 03:18:43 12890 PARROD Olivier
  • 2858 03:18:44 4765 COLM O Grady
  • 2859 03:18:44 12386 ESCRIBANO Lucio
  • 2860 03:18:44 13582 WAREMBOURG Bruno
  • 2861 03:18:45 12631 NAIZET Eric
  • 2862 03:18:45 13993 SOUMPHOLPHAKDY Somphone
  • 2863 03:18:46 3609 CHAIZE Maxime
  • 2864 03:18:46 9055 HUET Mathieu
  • 2865 03:18:46 9543 BRUN Philippe
  • 2866 03:18:47 10724 BERTAUX Aurelien
  • 2867 03:18:48 3143 COURANT Emmanuel
  • 2868 03:18:48 5826 COIGNARD Renaud
  • 2869 03:18:48 9971 GREGOIRE Mickael
  • 2870 03:18:48 10916 LAUGRAND Thomas
  • 2871 03:18:49 4575 BEAUFILS Bruno
  • 2872 03:18:49 4644 DOMINGUEZ PUNAL Gustavo
  • 2873 03:18:49 16619 VANHOLLEBEKE Jean-Marc
  • 2874 03:18:50 4267 DURAND Johann
  • 2875 03:18:50 4890 PEROL Julien
  • 2876 03:18:51 4303 BUISSON Patrice
  • 2877 03:18:51 11464 VASILEIOU Vasileios
  • 2878 03:18:52 4285 MORMUL Przemyslaw
  • 2879 03:18:52 5391 SALEH Mansour
  • 2880 03:18:52 9767 WINTERTON Mark
  • 2881 03:18:52 30348 COELHO INES Jean Louis
  • 2882 03:18:52 53200 RECUERO Gilles
  • 2883 03:18:53 16019 FOURQUEZ Christophe
  • 2884 03:18:53 19939 VICTOR Laurent
  • 2885 03:18:53 36909 LEWINGTON Lee
  • 2886 03:18:54 9639 RAMON Villar Ruibal
  • 2887 03:18:54 9769 ANTUNES Jose
  • 2888 03:18:54 10944 REGAZZONI Hugues
  • 2889 03:18:54 13945 LAMBERT David
  • 2890 03:18:55 3191 SICARD Nicolas
  • 2891 03:18:55 17214 POUILLAS Stephane
  • 2892 03:18:55 17382 WINCKEL Frederic
  • 2893 03:18:56 17209 POUILLAS Freddy
  • 2894 03:18:57 6565 NETO Murillo
  • 2895 03:18:58 4735 VERWACHT Quentin
  • 2896 03:18:59 12864 LEBRETON Philippe
  • 2897 03:19:00 4470 STOCKMANS Francois
  • 2898 03:19:00 4750 CROONENBERGHS Frederic
  • 2899 03:19:00 11415 LOPEZ Francisco
  • 2900 03:19:00 12612 LUPIANEZ MARTIN Javier
  • 2901 03:19:00 24149 VAN DELSEN Willem A.L.
  • 2902 03:19:01 12995 LENGLET Yannick
  • 2903 03:19:02 4891 ROYER Alexandre
  • 2904 03:19:02 10483 FLORENS Brett
  • 2905 03:19:04 11763 PEREIRA David
  • 2906 03:19:04 34680 PERON Etienne
  • 2907 03:19:05 5460 FERT Gregoire
  • 2908 03:19:05 9702 ANDRIEU Gregoire
  • 2909 03:19:05 10857 FRAGUA Sebastien
  • 2910 03:19:06 3061 LESPAGNARD David
  • 2911 03:19:06 5147 FAIVRE Sebastien
  • 2912 03:19:06 6858 GUILLE Johann
  • 2913 03:19:07 11394 PESNEAU Philippe
  • 2914 03:19:07 11654 THOMAS Smith
  • 2915 03:19:07 12427 AIT KACI OUALI Amine
  • 2916 03:19:07 12714 WELSCH Francois
  • 2917 03:19:07 13527 PETITALOT Frederic
  • 2918 03:19:07 13922 ARRAGON Remi
  • 2919 03:19:07 17061 YVEN Thomas
  • 2920 03:19:09 3324 LEGOUET Cedric
  • 2921 03:19:10 3401 BUISSON Benjamin
  • 2922 03:19:10 4787 PERRACHON Daniel
  • 2923 03:19:10 10278 CLOUTIER Sebastien
  • 2924 03:19:10 11088 LEBOUCHER Luc
  • 2925 03:19:11 3993 SIMON ARTIGAS Joan
  • 2926 03:19:11 6865 VAMBANA Harry
  • 2927 03:19:12 10544 LEAMAN Ian
  • 2928 03:19:12 10591 GNOUNOU Jalel
  • 2929 03:19:12 10837 DUBAN Arnaud
  • 2930 03:19:12 10881 GOGARTY Benedict
  • 2931 03:19:13 23273 FOLLAIN Thibaud
  • 2932 03:19:14 992 LUCIANI Sylvain
  • 2933 03:19:14 6422 FEKAR Farid
  • 2934 03:19:14 13250 JONK Arjan
  • 2935 03:19:14 13808 LE COZ Emmanuel
  • 2936 03:19:15 4315 SONNE Peter
  • 2937 03:19:15 10689 WAUCQUIER David
  • 2938 03:19:15 13337 MATTHEWS Stuart
  • 2939 03:19:16 3010 BOUDEAU Eric
  • 2940 03:19:16 6063 GAUVRIT Mickael
  • 2941 03:19:17 12395 PASQUIER Tony
  • 2942 03:19:18 33026 NARFIN Edmond
  • 2943 03:19:20 728 ANTON Karl
  • 2944 03:19:20 3428 DUCLOY Kevin
  • 2945 03:19:20 36142 MARTIN Jean-Philippe
  • 2946 03:19:21 4707 FALIGANT Jean-Claude
  • 2947 03:19:21 6076 NICOLAS Noel
  • 2948 03:19:21 10546 BOUTHEMY Ludovic
  • 2949 03:19:21 12955 SOUSA DANTAS Andrea V.
  • 2950 03:19:21 13775 VERMOT Olivier
  • 2951 03:19:21 22269 BANSARD Arnaud
  • 2952 03:19:22 3595 BARDOT David
  • 2953 03:19:22 6812 MAINA Kevin
  • 2954 03:19:22 13570 NOGUEIRA Jean-Philippe
  • 2955 03:19:22 13609 BENARD Guillaume
  • 2956 03:19:22 19916 COY Jean-Francois
  • 2957 03:19:23 5161 ALLEN James
  • 2958 03:19:23 11278 ROJO Chris
  • 2959 03:19:23 11289 HAUSSTATTER Rune
  • 2960 03:19:23 11886 CREQUY Dominique
  • 2961 03:19:24 5024 COUSTALOU Didier
  • 2962 03:19:24 5991 MARTIN Sam
  • 2963 03:19:25 3453 NEVOUX Pierre
  • 2964 03:19:25 5205 PERRET Thierry
  • 2965 03:19:25 10769 LABOURE Michel
  • 2966 03:19:25 20627 LEZDINS Janis
  • 2967 03:19:26 3105 DREWERY Cyril
  • 2968 03:19:26 3932 HOEGH Mikkel
  • 2969 03:19:26 4344 DUPIRE Olivier
  • 2970 03:19:26 10982 CISTERNINO Frederic
  • 2971 03:19:26 11719 ZAROWSKY Damien
  • 2972 03:19:26 13497 FERREIRINHA Jorge
  • 2973 03:19:27 6722 DUMINY Gilles
  • 2974 03:19:27 10416 GONTHIER Remi
  • 2975 03:19:27 12281 LAGRANGE Sebastien
  • 2976 03:19:27 19513 MARTIN Eric
  • 2977 03:19:28 4942 CEREZO Rafael
  • 2978 03:19:28 6790 PERROTIN Guillaume
  • 2979 03:19:28 9910 PALOMINO Manuel
  • 2980 03:19:28 10467 MAZEL Alexandre
  • 2981 03:19:28 11255 THIOULOUSE Florent
  • 2982 03:19:28 12121 HIRA Gustave
  • 2983 03:19:28 13202 ISABELLE Teddy
  • 2984 03:19:28 13818 ROMON Mathieu
  • 2985 03:19:29 3394 YOICHIRO Higa
  • 2986 03:19:29 3887 RICHARDSON Frederic
  • 2987 03:19:29 9026 GAUTIER Eric
  • 2988 03:19:29 9080 HANSSON Christer
  • 2989 03:19:29 9867 LESIEUR Benjamin
  • 2990 03:19:30 3802 SOUVIGNHEC Stephane
  • 2991 03:19:30 11181 COLLIGAN Joe
  • 2992 03:19:30 17804 TINSALHI Zahir
  • 2993 03:19:32 11262 CORRAL MUGA Ivan
  • 2994 03:19:32 13341 RACINE Jean Denis
  • 2995 03:19:32 20670 KRAWIEC Anthony
  • 2996 03:19:33 647 LEGRAS Dominique
  • 2997 03:19:33 11636 MARTIN Regis
  • 2998 03:19:33 13084 BOSCO Sabino
  • 2999 03:19:33 23960 DROULEZ Franck
  • 3000 03:19:33 45307 CAPDEVIELLE Julie

Laisser un commentaire

Ce site utilise Akismet pour réduire les indésirables. En savoir plus sur comment les données de vos commentaires sont utilisées.

Les cookies nous permettent de personnaliser le contenu et les annonces, d'offrir des fonctionnalités relatives aux médias sociaux et d'analyser notre trafic. Nous partageons également des informations sur l'utilisation de notre site avec nos partenaires de médias sociaux, de publicité et d'analyse, qui peuvent combiner celles-ci avec d'autres informations que vous leur avez fournies ou qu'ils ont collectées lors de votre utilisation de leurs services. Plus d’informations

Les paramètres des cookies sur ce site sont définis sur « accepter les cookies » pour vous offrir la meilleure expérience de navigation possible. Si vous continuez à utiliser ce site sans changer vos paramètres de cookies ou si vous cliquez sur "Accepter" ci-dessous, vous consentez à cela.

Fermer